GW6179 Weather Reports


time (UTC)temp
C
wind
direction
speed
KPH
gust
KPH
rain 1hr
cm
rain 24hr
cm
rain mn
cm
humidity
%
barometer
mb
20260510231116 31 0.0 0.0 0.00 0.00 0.00 17 1019.4
20260510231016 31 0.0 0.0 0.00 0.00 0.00 17 1019.5
20260510230916 31 0.0 0.0 0.00 0.00 0.00 17 1019.9
20260510230837 31 0.0 0.0 0.00 0.00 0.00 16 1019.8
20260510230716 31 0.0 0.0 0.00 0.00 0.00 16 1019.7
20260510230639 31 0.0 0.0 0.00 0.00 0.00 16 1019.7
20260510230516 31 0.0 0.0 0.00 0.00 0.00 15 1019.7
20260510230416 31 0.0 0.0 0.00 0.00 0.00 15 1019.6
20260510230316 31 0.0 0.0 0.00 0.00 0.00 13 1019.5
20260510230216 31 0.0 0.0 0.00 0.00 0.00 13 1019.4
20260510230117 31 0.0 0.0 0.00 0.00 0.00 14 1019.3
20260510230016 31 0.0 0.0 0.00 0.00 0.00 13 1019.3
20260510225916 31 0.0 0.0 0.00 0.00 0.00 13 1019.3
20260510225816 31 0.0 0.0 0.00 0.00 0.00 13 1019.4
20260510225716 31 0.0 0.0 0.00 0.00 0.00 13 1019.4
20260510225616 31 0.0 0.0 0.00 0.00 0.00 13 1019.3
20260510225516 30 0.0 0.0 0.00 0.00 0.00 13 1019.2
20260510225417 30 0.0 0.0 0.00 0.00 0.00 14 1019.2
20260510225316 30 0.0 0.0 0.00 0.00 0.00 15 1019.3
20260510225216 30 0.0 0.0 0.00 0.00 0.00 16 1019.3
20260510225116 30 0.0 0.0 0.00 0.00 0.00 16 1019.2
20260510225016 30 0.0 0.0 0.00 0.00 0.00 18 1019.3
20260510224916 30 0.0 0.0 0.00 0.00 0.00 19 1019.5
20260510224816 30 0.0 0.0 0.00 0.00 0.00 19 1019.3
20260510224716 30 0.0 0.0 0.00 0.00 0.00 19 1019.5
20260510224616 30 0.0 0.0 0.00 0.00 0.00 19 1019.4
20260510224516 30 0.0 0.0 0.00 0.00 0.00 19 1019.6
20260510224416 30 0.0 0.0 0.00 0.00 0.00 19 1019.5
20260510224316 30 0.0 0.0 0.00 0.00 0.00 19 1019.7
20260510224236 30 0.0 0.0 0.00 0.00 0.00 19 1019.8
20260510224116 30 0.0 0.0 0.00 0.00 0.00 18 1019.9
20260510224016 30 0.0 0.0 0.00 0.00 0.00 18 1020.0
20260510223916 30 0.0 0.0 0.00 0.00 0.00 17 1019.8
20260510223816 30 0.0 0.0 0.00 0.00 0.00 16 1020.0
20260510223716 30 0.0 0.0 0.00 0.00 0.00 15 1020.3
20260510223638 30 0.0 0.0 0.00 0.00 0.00 18 1020.4
20260510223516 30 0.0 0.0 0.00 0.00 0.00 18 1020.4
20260510223416 30 0.0 0.0 0.00 0.00 0.00 18 1020.4
20260510223316 30 0.0 0.0 0.00 0.00 0.00 18 1020.3
20260510223216 30 0.0 0.0 0.00 0.00 0.00 18 1020.1
20260510223116 30 0.0 0.0 0.00 0.00 0.00 18 1020.2
20260510223016 31 0.0 0.0 0.00 0.00 0.00 18 1020.3
20260510222916 31 0.0 0.0 0.00 0.00 0.00 18 1020.2
20260510222816 31 0.0 0.0 0.00 0.00 0.00 18 1020.1
20260510222716 31 0.0 0.0 0.00 0.00 0.00 17 1020.1
20260510222616 31 0.0 0.0 0.00 0.00 0.00 16 1020.3
20260510222516 32 0.0 0.0 0.00 0.00 0.00 14 1020.2
20260510222416 32 0.0 0.0 0.00 0.00 0.00 12 1020.0
20260510222317 32 0.0 0.0 0.00 0.00 0.00 11 1019.9
20260510222216 32 0.0 0.0 0.00 0.00 0.00 10 1019.7
20260510222117 32 0.0 0.0 0.00 0.00 0.00 11 1019.7
20260510222016 32 0.0 0.0 0.00 0.00 0.00 10 1019.3
20260510221936 32 0.0 0.0 0.00 0.00 0.00 10 1019.3
20260510221816 32 0.0 0.0 0.00 0.00 0.00 10 1019.6
20260510221716 32 0.0 0.0 0.00 0.00 0.00 10 1019.4
20260510221616 32 0.0 0.0 0.00 0.00 0.00 10 1019.4
20260510221517 32 0.0 0.0 0.00 0.00 0.00 10 1019.3
20260510221416 32 0.0 0.0 0.00 0.00 0.00 11 1019.5
20260510221358 32 0.0 0.0 0.00 0.00 0.00 11 1019.3
20260510221257 32 0.0 0.0 0.00 0.00 0.00 10 1019.3
20260510221116 32 0.0 0.0 0.00 0.00 0.00 10 1019.3
20260510221016 32 0.0 0.0 0.00 0.00 0.00 10 1019.2
20260510220938 32 0.0 0.0 0.00 0.00 0.00 10 1019.2
20260510220816 32 0.0 0.0 0.00 0.00 0.00 10 1019.1
20260510220717 32 0.0 0.0 0.00 0.00 0.00 10 1019.1
20260510220616 32 0.0 0.0 0.00 0.00 0.00 10 1019.1
20260510220516 32 0.0 0.0 0.00 0.00 0.00 10 1019.1
20260510220416 32 0.0 0.0 0.00 0.00 0.00 11 1019.1
20260510220316 32 0.0 0.0 0.00 0.00 0.00 10 1019.1
20260510220217 32 0.0 0.0 0.00 0.00 0.00 10 1019.1
20260510220116 32 0.0 0.0 0.00 0.00 0.00 10 1019.1
20260510220017 32 0.0 0.0 0.00 0.00 0.00 10 1019.3
20260510215916 32 0.0 0.0 0.00 0.00 0.00 10 1019.4
20260510215816 32 0.0 0.0 0.00 0.00 0.00 10 1019.4
20260510215736 33 0.0 0.0 0.00 0.00 0.00 10 1019.4
20260510215616 33 0.0 0.0 0.00 0.00 0.00 10 1019.4
20260510215516 33 0.0 0.0 0.00 0.00 0.00 10 1019.3
20260510215416 33 0.0 0.0 0.00 0.00 0.00 10 1019.3
20260510215306 33 0.0 0.0 0.00 0.00 0.00 10 1019.6
20260510214816 33 0.0 0.0 0.00 0.00 0.00 10 1019.6
20260510214716 33 0.0 0.0 0.00 0.00 0.00 10 1019.6
20260510214616 33 0.0 0.0 0.00 0.00 0.00 10 1019.6
20260510214516 33 0.0 0.0 0.00 0.00 0.00 10 1019.6
20260510214437 33 0.0 0.0 0.00 0.00 0.00 10 1019.6
20260510214317 33 0.0 0.0 0.00 0.00 0.00 10 1019.6
20260510214216 33 0.0 0.0 0.00 0.00 0.00 10 1019.6
20260510214116 33 0.0 0.0 0.00 0.00 0.00 11 1019.5
20260510214017 33 0.0 0.0 0.00 0.00 0.00 11 1019.6
20260510213938 33 0.0 0.0 0.00 0.00 0.00 11 1019.8
20260510213816 33 0.0 0.0 0.00 0.00 0.00 11 1019.7
20260510213716 33 0.0 0.0 0.00 0.00 0.00 11 1019.8
20260510213616 33 0.0 0.0 0.00 0.00 0.00 11 1019.9
20260510213516 33 0.0 0.0 0.00 0.00 0.00 11 1020.0
20260510213416 33 0.0 0.0 0.00 0.00 0.00 11 1019.9
20260510213316 33 0.0 0.0 0.00 0.00 0.00 11 1019.9
20260510213216 33 0.0 0.0 0.00 0.00 0.00 11 1020.0
20260510213116 33 0.0 0.0 0.00 0.00 0.00 11 1019.9
20260510213018 33 0.0 0.0 0.00 0.00 0.00 11 1019.9
20260510212916 33 0.0 0.0 0.00 0.00 0.00 11 1020.0
20260510212817 33 0.0 0.0 0.00 0.00 0.00 11 1020.0
20260510212716 33 0.0 0.0 0.00 0.00 0.00 11 1020.1
20260510212617 33 0.0 0.0 0.00 0.00 0.00 11 1020.1
20260510212516 33 0.0 0.0 0.00 0.00 0.00 11 1020.2
20260510212417 33 0.0 0.0 0.00 0.00 0.00 11 1020.2
20260510212317 33 0.0 0.0 0.00 0.00 0.00 12 1020.3
20260510212216 33 0.0 0.0 0.00 0.00 0.00 11 1020.0
20260510212117 32 0.0 0.0 0.00 0.00 0.00 11 1020.1
20260510212016 32 0.0 0.0 0.00 0.00 0.00 11 1020.0
20260510211918 32 0.0 0.0 0.00 0.00 0.00 11 1020.1
20260510211817 33 0.0 0.0 0.00 0.00 0.00 11 1020.1
20260510211718 33 0.0 0.0 0.00 0.00 0.00 11 1020.1
20260510211617 33 0.0 0.0 0.00 0.00 0.00 11 1020.2
20260510211516 33 0.0 0.0 0.00 0.00 0.00 11 1020.2
20260510211416 33 0.0 0.0 0.00 0.00 0.00 11 1020.1
20260510211338 33 0.0 0.0 0.00 0.00 0.00 11 1020.2
20260510211216 33 0.0 0.0 0.00 0.00 0.00 11 1020.1
20260510211116 32 0.0 0.0 0.00 0.00 0.00 11 1020.2
20260510211016 32 0.0 0.0 0.00 0.00 0.00 11 1020.2
20260510210916 32 0.0 0.0 0.00 0.00 0.00 11 1020.1
20260510210838 32 0.0 0.0 0.00 0.00 0.00 11 1020.1
20260510210716 32 0.0 0.0 0.00 0.00 0.00 11 1019.8
20260510210616 32 0.0 0.0 0.00 0.00 0.00 11 1019.8
20260510210537 32 0.0 0.0 0.00 0.00 0.00 11 1019.8
20260510210416 32 0.0 0.0 0.00 0.00 0.00 11 1019.7
20260510210316 32 0.0 0.0 0.00 0.00 0.00 11 1019.7
20260510210216 32 0.0 0.0 0.00 0.00 0.00 11 1019.7
20260510210116 32 0.0 0.0 0.00 0.00 0.00 11 1019.7
20260510210016 32 0.0 0.0 0.00 0.00 0.00 11 1020.1
20260510205916 32 0.0 0.0 0.00 0.00 0.00 11 1020.1
20260510205816 32 0.0 0.0 0.00 0.00 0.00 11 1020.1
20260510205717 32 0.0 0.0 0.00 0.00 0.00 11 1020.1
20260510205616 32 0.0 0.0 0.00 0.00 0.00 11 1020.3
20260510205538 32 0.0 0.0 0.00 0.00 0.00 11 1020.1
20260510205439 32 0.0 0.0 0.00 0.00 0.00 11 1020.3
20260510205316 33 0.0 0.0 0.00 0.00 0.00 12 1020.3
20260510205216 33 0.0 0.0 0.00 0.00 0.00 11 1020.3
20260510205117 33 0.0 0.0 0.00 0.00 0.00 11 1020.3
20260510205038 33 0.0 0.0 0.00 0.00 0.00 11 1020.3
20260510204917 33 0.0 0.0 0.00 0.00 0.00 11 1020.4
20260510204822 33 0.0 0.0 0.00 0.00 0.00 11 1020.4
20260510204717 32 0.0 0.0 0.00 0.00 0.00 12 1020.4
20260510204616 32 0.0 0.0 0.00 0.00 0.00 11 1020.4
20260510204536 32 0.0 0.0 0.00 0.00 0.00 11 1020.4
20260510204416 33 0.0 0.0 0.00 0.00 0.00 11 1020.4
20260510204337 32 0.0 0.0 0.00 0.00 0.00 11 1020.4
20260510204216 32 0.0 0.0 0.00 0.00 0.00 11 1020.4
20260510204117 32 0.0 0.0 0.00 0.00 0.00 11 1020.7
20260510204017 32 0.0 0.0 0.00 0.00 0.00 12 1020.5
20260510203916 32 0.0 0.0 0.00 0.00 0.00 11 1020.4
20260510203857 32 0.0 0.0 0.00 0.00 0.00 11 1020.4
20260510203716 32 0.0 0.0 0.00 0.00 0.00 11 1020.4
20260510203616 32 0.0 0.0 0.00 0.00 0.00 11 1020.7
20260510203516 32 0.0 0.0 0.00 0.00 0.00 11 1020.7
20260510203416 32 0.0 0.0 0.00 0.00 0.00 12 1020.7
20260510203316 33 0.0 0.0 0.00 0.00 0.00 11 1020.7
20260510203216 33 0.0 0.0 0.00 0.00 0.00 12 1020.7
20260510203136 33 0.0 0.0 0.00 0.00 0.00 12 1020.8
20260510202952 33 0.0 0.0 0.00 0.00 0.00 11 1020.7
20260510202837 33 0.0 0.0 0.00 0.00 0.00 11 1021.0
20260510202716 33 0.0 0.0 0.00 0.00 0.00 11 1021.3
20260510202616 33 0.0 0.0 0.00 0.00 0.00 11 1021.3
20260510202516 33 0.0 0.0 0.00 0.00 0.00 11 1021.0
20260510202418 33 0.0 0.0 0.00 0.00 0.00 12 1021.1
20260510202316 33 0.0 0.0 0.00 0.00 0.00 11 1021.0
20260510202217 33 0.0 0.0 0.00 0.00 0.00 12 1021.1
20260510202116 33 0.0 0.0 0.00 0.00 0.00 12 1021.1
20260510201951 33 0.0 0.0 0.00 0.00 0.00 12 1021.1
20260510201949 33 0.0 0.0 0.00 0.00 0.00 12 1021.1
20260510201817 33 0.0 0.0 0.00 0.00 0.00 11 1021.1
20260510201717 33 0.0 0.0 0.00 0.00 0.00 12 1021.2
20260510201637 33 0.0 0.0 0.00 0.00 0.00 11 1021.3
20260510201516 33 0.0 0.0 0.00 0.00 0.00 11 1021.4
20260510201418 33 0.0 0.0 0.00 0.00 0.00 11 1021.3
20260510201316 33 0.0 0.0 0.00 0.00 0.00 11 1021.3
20260510201236 33 0.0 0.0 0.00 0.00 0.00 11 1021.3
20260510201116 33 0.0 0.0 0.00 0.00 0.00 11 1021.4
20260510201016 33 0.0 0.0 0.00 0.00 0.00 11 1021.4
20260510200916 33 0.0 0.0 0.00 0.00 0.00 11 1021.3
20260510200818 33 0.0 0.0 0.00 0.00 0.00 12 1021.4
20260510200717 33 0.0 0.0 0.00 0.00 0.00 11 1021.3
20260510200657 33 0.0 0.0 0.00 0.00 0.00 11 1021.4
20260510200536 33 0.0 0.0 0.00 0.00 0.00 11 1021.7
20260510200417 34 0.0 0.0 0.00 0.00 0.00 11 1021.6
20260510200317 34 0.0 0.0 0.00 0.00 0.00 11 1021.6
20260510200216 34 0.0 0.0 0.00 0.00 0.00 11 1021.7
20260510200116 34 0.0 0.0 0.00 0.00 0.00 11 1021.7
20260510200016 35 0.0 0.0 0.00 0.00 0.00 11 1021.6
20260510195918 35 0.0 0.0 0.00 0.00 0.00 11 1021.7
20260510195817 34 0.0 0.0 0.00 0.00 0.00 11 1021.7
20260510195716 34 0.0 0.0 0.00 0.00 0.00 11 1021.7
20260510195617 34 0.0 0.0 0.00 0.00 0.00 11 1021.8
20260510195516 34 0.0 0.0 0.00 0.00 0.00 11 1021.7
20260510195417 34 0.0 0.0 0.00 0.00 0.00 11 1021.8
20260510195316 34 0.0 0.0 0.00 0.00 0.00 11 1021.7
20260510195216 34 0.0 0.0 0.00 0.00 0.00 11 1021.7
20260510195116 34 0.0 0.0 0.00 0.00 0.00 11 1021.6
20260510195017 34 0.0 0.0 0.00 0.00 0.00 11 1021.6
20260510194916 34 0.0 0.0 0.00 0.00 0.00 11 1021.7
20260510194837 33 0.0 0.0 0.00 0.00 0.00 11 1021.5
20260510194716 33 0.0 0.0 0.00 0.00 0.00 11 1021.4
20260510194616 33 0.0 0.0 0.00 0.00 0.00 11 1021.4
20260510194536 33 0.0 0.0 0.00 0.00 0.00 11 1021.4
20260510194427 33 0.0 0.0 0.00 0.00 0.00 11 1021.4
20260510194336 33 0.0 0.0 0.00 0.00 0.00 11 1021.4
20260510194216 33 0.0 0.0 0.00 0.00 0.00 11 1021.4
20260510194137 33 0.0 0.0 0.00 0.00 0.00 11 1021.4
20260510194016 33 0.0 0.0 0.00 0.00 0.00 12 1021.5
20260510193918 33 0.0 0.0 0.00 0.00 0.00 12 1021.4
20260510193816 33 0.0 0.0 0.00 0.00 0.00 11 1021.4
20260510193716 33 0.0 0.0 0.00 0.00 0.00 11 1021.4
20260510193616 33 0.0 0.0 0.00 0.00 0.00 11 1021.4
20260510193516 33 0.0 0.0 0.00 0.00 0.00 12 1021.5
20260510193416 33 0.0 0.0 0.00 0.00 0.00 12 1021.5
20260510193316 32 0.0 0.0 0.00 0.00 0.00 12 1021.1
20260510193216 32 0.0 0.0 0.00 0.00 0.00 11 1021.2
20260510193117 33 0.0 0.0 0.00 0.00 0.00 12 1021.2
20260510193016 33 0.0 0.0 0.00 0.00 0.00 11 1021.2
20260510192917 33 0.0 0.0 0.00 0.00 0.00 12 1021.4
20260510192838 33 0.0 0.0 0.00 0.00 0.00 11 1021.4
20260510192716 33 0.0 0.0 0.00 0.00 0.00 11 1021.5
20260510192636 33 0.0 0.0 0.00 0.00 0.00 12 1021.5
20260510192516 33 0.0 0.0 0.00 0.00 0.00 11 1021.5
20260510192438 33 0.0 0.0 0.00 0.00 0.00 11 1021.4
20260510192318 33 0.0 0.0 0.00 0.00 0.00 12 1021.5
20260510192216 33 0.0 0.0 0.00 0.00 0.00 11 1021.4
20260510192117 33 0.0 0.0 0.00 0.00 0.00 11 1021.5
20260510192016 33 0.0 0.0 0.00 0.00 0.00 11 1021.5
20260510191916 33 0.0 0.0 0.00 0.00 0.00 12 1021.3
20260510191816 33 0.0 0.0 0.00 0.00 0.00 12 1021.3
20260510191716 33 0.0 0.0 0.00 0.00 0.00 12 1021.3
20260510191617 33 0.0 0.0 0.00 0.00 0.00 12 1021.3
20260510191516 33 0.0 0.0 0.00 0.00 0.00 12 1021.3
20260510191437 33 0.0 0.0 0.00 0.00 0.00 12 1021.3
20260510191316 33 0.0 0.0 0.00 0.00 0.00 12 1021.3
20260510191216 32 0.0 0.0 0.00 0.00 0.00 12 1021.2
20260510191157 32 0.0 0.0 0.00 0.00 0.00 12 1021.3
20260510191017 32 0.0 0.0 0.00 0.00 0.00 12 1021.2
20260510190917 33 0.0 0.0 0.00 0.00 0.00 12 1021.3
20260510190816 33 0.0 0.0 0.00 0.00 0.00 12 1021.4
20260510190716 33 0.0 0.0 0.00 0.00 0.00 12 1021.4
20260510190616 33 0.0 0.0 0.00 0.00 0.00 12 1021.7
20260510190516 33 0.0 0.0 0.00 0.00 0.00 11 1021.7
20260510190416 33 0.0 0.0 0.00 0.00 0.00 12 1021.8
20260510190316 33 0.0 0.0 0.00 0.00 0.00 12 1021.8
20260510190237 33 0.0 0.0 0.00 0.00 0.00 12 1021.8
20260510190116 33 0.0 0.0 0.00 0.00 0.00 12 1021.8
20260510185950 33 0.0 0.0 0.00 0.00 0.00 11 1021.6
20260510185816 33 0.0 0.0 0.00 0.00 0.00 11 1021.5
20260510185716 33 0.0 0.0 0.00 0.00 0.00 11 1021.6
20260510185616 33 0.0 0.0 0.00 0.00 0.00 12 1021.5
20260510185456 33 0.0 0.0 0.00 0.00 0.00 12 1021.5
20260510185316 33 0.0 0.0 0.00 0.00 0.00 12 1021.6
20260510185217 33 0.0 0.0 0.00 0.00 0.00 12 1021.6
20260510185136 33 0.0 0.0 0.00 0.00 0.00 12 1021.6
20260510184954 33 0.0 0.0 0.00 0.00 0.00 12 1021.4
20260510184816 33 0.0 0.0 0.00 0.00 0.00 13 1021.6
20260510184716 32 0.0 0.0 0.00 0.00 0.00 12 1021.5
20260510184616 32 0.0 0.0 0.00 0.00 0.00 12 1021.5
20260510184516 32 0.0 0.0 0.00 0.00 0.00 12 1021.5
20260510184417 32 0.0 0.0 0.00 0.00 0.00 12 1021.6
20260510184316 32 0.0 0.0 0.00 0.00 0.00 12 1021.6
20260510184236 32 0.0 0.0 0.00 0.00 0.00 12 1021.3
20260510184136 32 0.0 0.0 0.00 0.00 0.00 12 1021.6
20260510183955 32 0.0 0.0 0.00 0.00 0.00 12 1021.6
20260510183816 32 0.0 0.0 0.00 0.00 0.00 12 1021.6
20260510183716 32 0.0 0.0 0.00 0.00 0.00 12 1021.7
20260510183658 32 0.0 0.0 0.00 0.00 0.00 12 1021.7
20260510183514 32 0.0 0.0 0.00 0.00 0.00 12 1021.7
20260510183316 33 0.0 0.0 0.00 0.00 0.00 12 1021.8
20260510183237 33 0.0 0.0 0.00 0.00 0.00 12 1022.0
20260510183158 33 0.0 0.0 0.00 0.00 0.00 12 1022.2
20260510183017 33 0.0 0.0 0.00 0.00 0.00 12 1022.1
20260510182916 33 0.0 0.0 0.00 0.00 0.00 12 1022.2
20260510182816 33 0.0 0.0 0.00 0.00 0.00 12 1022.1
20260510182737 33 0.0 0.0 0.00 0.00 0.00 12 1022.0
20260510182617 33 0.0 0.0 0.00 0.00 0.00 12 1022.1
20260510182516 33 0.0 0.0 0.00 0.00 0.00 12 1022.1
20260510182416 33 0.0 0.0 0.00 0.00 0.00 12 1022.1
20260510182316 33 0.0 0.0 0.00 0.00 0.00 12 1022.2
20260510182256 33 0.0 0.0 0.00 0.00 0.00 12 1022.1
20260510182117 33 0.0 0.0 0.00 0.00 0.00 12 1022.0
20260510182005 33 0.0 0.0 0.00 0.00 0.00 13 1022.2
20260510182003 33 0.0 0.0 0.00 0.00 0.00 12 1022.0
20260510181816 33 0.0 0.0 0.00 0.00 0.00 13 1022.2
20260510181736 33 0.0 0.0 0.00 0.00 0.00 13 1022.1
20260510181616 33 0.0 0.0 0.00 0.00 0.00 12 1022.1
20260510181541 32 0.0 0.0 0.00 0.00 0.00 12 1022.1
20260510181519 32 0.0 0.0 0.00 0.00 0.00 13 1022.2
20260510181316 33 0.0 0.0 0.00 0.00 0.00 13 1022.2
20260510181216 33 0.0 0.0 0.00 0.00 0.00 12 1022.2
20260510181117 32 0.0 0.0 0.00 0.00 0.00 13 1022.2
20260510181016 32 0.0 0.0 0.00 0.00 0.00 12 1022.2
20260510180917 33 0.0 0.0 0.00 0.00 0.00 12 1022.1
20260510180816 33 0.0 0.0 0.00 0.00 0.00 12 1022.2
20260510180716 33 0.0 0.0 0.00 0.00 0.00 12 1022.1
20260510180616 32 0.0 0.0 0.00 0.00 0.00 12 1022.1
20260510180453 32 0.0 0.0 0.00 0.00 0.00 12 1022.3
20260510180316 32 0.0 0.0 0.00 0.00 0.00 12 1022.3
20260510180216 32 0.0 0.0 0.00 0.00 0.00 12 1022.5
20260510180136 32 0.0 0.0 0.00 0.00 0.00 12 1022.5
20260510175954 32 0.0 0.0 0.00 0.00 0.00 12 1022.5
20260510175816 32 0.0 0.0 0.00 0.00 0.00 12 1022.3
20260510175716 32 0.0 0.0 0.00 0.00 0.00 12 1022.3
20260510175654 32 0.0 0.0 0.00 0.00 0.00 12 1022.2
20260510175633 32 0.0 0.0 0.00 0.00 0.00 12 1022.2
20260510175631 32 0.0 0.0 0.00 0.00 0.00 12 1022.2
20260510175317 32 0.0 0.0 0.00 0.00 0.00 12 1022.0
20260510175216 32 0.0 0.0 0.00 0.00 0.00 12 1022.1
20260510175116 32 0.0 0.0 0.00 0.00 0.00 13 1022.1
20260510175036 32 0.0 0.0 0.00 0.00 0.00 12 1021.9
20260510174917 32 0.0 0.0 0.00 0.00 0.00 12 1021.9
20260510174816 32 0.0 0.0 0.00 0.00 0.00 13 1022.0
20260510174716 32 0.0 0.0 0.00 0.00 0.00 12 1022.0
20260510174616 32 0.0 0.0 0.00 0.00 0.00 12 1022.0
20260510174517 32 0.0 0.0 0.00 0.00 0.00 13 1022.0
20260510174417 32 0.0 0.0 0.00 0.00 0.00 12 1022.1
20260510174316 32 0.0 0.0 0.00 0.00 0.00 13 1022.0
20260510174216 31 0.0 0.0 0.00 0.00 0.00 13 1022.1
20260510174116 31 0.0 0.0 0.00 0.00 0.00 13 1022.1
20260510174024 31 0.0 0.0 0.00 0.00 0.00 13 1022.1
20260510174022 31 0.0 0.0 0.00 0.00 0.00 13 1022.1
20260510173816 31 0.0 0.0 0.00 0.00 0.00 13 1022.1
20260510173716 31 0.0 0.0 0.00 0.00 0.00 13 1022.1
20260510173616 31 0.0 0.0 0.00 0.00 0.00 13 1022.1
20260510173516 31 0.0 0.0 0.00 0.00 0.00 13 1022.0
20260510173416 31 0.0 0.0 0.00 0.00 0.00 13 1022.1
20260510173316 31 0.0 0.0 0.00 0.00 0.00 13 1022.0
20260510173216 31 0.0 0.0 0.00 0.00 0.00 13 1022.0
20260510173157 31 0.0 0.0 0.00 0.00 0.00 13 1022.1
20260510173036 31 0.0 0.0 0.00 0.00 0.00 14 1022.1
20260510172917 31 0.0 0.0 0.00 0.00 0.00 14 1022.1
20260510172837 31 0.0 0.0 0.00 0.00 0.00 14 1022.2
20260510172716 31 0.0 0.0 0.00 0.00 0.00 14 1022.2
20260510172616 31 0.0 0.0 0.00 0.00 0.00 14 1022.0
20260510172516 31 0.0 0.0 0.00 0.00 0.00 13 1022.1
20260510172418 31 0.0 0.0 0.00 0.00 0.00 13 1022.2
20260510172316 31 0.0 0.0 0.00 0.00 0.00 13 1022.1
20260510172216 31 0.0 0.0 0.00 0.00 0.00 14 1022.1
20260510172136 31 0.0 0.0 0.00 0.00 0.00 13 1022.1
20260510172016 31 0.0 0.0 0.00 0.00 0.00 13 1022.1
20260510171916 31 0.0 0.0 0.00 0.00 0.00 14 1022.2
20260510171816 31 0.0 0.0 0.00 0.00 0.00 13 1022.2
20260510171716 31 0.0 0.0 0.00 0.00 0.00 13 1022.4
20260510171617 31 0.0 0.0 0.00 0.00 0.00 13 1022.5
20260510171536 31 0.0 0.0 0.00 0.00 0.00 13 1022.5
20260510171416 31 0.0 0.0 0.00 0.00 0.00 13 1022.4
20260510171318 31 0.0 0.0 0.00 0.00 0.00 13 1022.4
20260510171217 31 0.0 0.0 0.00 0.00 0.00 14 1022.5
20260510171116 31 0.0 0.0 0.00 0.00 0.00 14 1022.5
20260510171016 31 0.0 0.0 0.00 0.00 0.00 14 1022.4
20260510170916 31 0.0 0.0 0.00 0.00 0.00 14 1022.5
20260510170816 31 0.0 0.0 0.00 0.00 0.00 14 1022.5
20260510170716 31 0.0 0.0 0.00 0.00 0.00 14 1022.6
20260510170616 31 0.0 0.0 0.00 0.00 0.00 14 1022.6
20260510170517 31 0.0 0.0 0.00 0.00 0.00 14 1022.6
20260510170416 31 0.0 0.0 0.00 0.00 0.00 14 1022.3
20260510170316 31 0.0 0.0 0.00 0.00 0.00 14 1022.2
20260510170216 31 0.0 0.0 0.00 0.00 0.00 14 1022.2
20260510170116 31 0.0 0.0 0.00 0.00 0.00 15 1022.3
20260510170017 31 0.0 0.0 0.00 0.00 0.00 14 1022.2
20260510165937 31 0.0 0.0 0.00 0.00 0.00 14 1022.3
20260510165817 31 0.0 0.0 0.00 0.00 0.00 14 1022.4
20260510165716 31 0.0 0.0 0.00 0.00 0.00 14 1022.5
20260510165616 31 0.0 0.0 0.00 0.00 0.00 14 1022.4
20260510165516 31 0.0 0.0 0.00 0.00 0.00 14 1022.4
20260510165416 31 0.0 0.0 0.00 0.00 0.00 14 1022.4
20260510165318 31 0.0 0.0 0.00 0.00 0.00 14 1022.3
20260510165216 31 0.0 0.0 0.00 0.00 0.00 14 1022.4
20260510165116 31 0.0 0.0 0.00 0.00 0.00 14 1022.4
20260510165016 31 0.0 0.0 0.00 0.00 0.00 14 1022.4
20260510164916 31 0.0 0.0 0.00 0.00 0.00 14 1022.4
20260510164816 31 0.0 0.0 0.00 0.00 0.00 13 1022.3
20260510164717 31 0.0 0.0 0.00 0.00 0.00 13 1022.3
20260510164616 31 0.0 0.0 0.00 0.00 0.00 14 1022.5
20260510164516 31 0.0 0.0 0.00 0.00 0.00 14 1022.5
20260510164416 31 0.0 0.0 0.00 0.00 0.00 13 1022.4
20260510164339 31 0.0 0.0 0.00 0.00 0.00 13 1022.6
20260510164217 31 0.0 0.0 0.00 0.00 0.00 14 1022.5
20260510164115 31 0.0 0.0 0.00 0.00 0.00 13 1022.4
20260510164016 31 0.0 0.0 0.00 0.00 0.00 14 1022.4
20260510163938 31 0.0 0.0 0.00 0.00 0.00 14 1022.4
20260510163816 31 0.0 0.0 0.00 0.00 0.00 13 1022.4
20260510163717 31 0.0 0.0 0.00 0.00 0.00 14 1022.4
20260510163657 31 0.0 0.0 0.00 0.00 0.00 14 1022.3
20260510163517 31 0.0 0.0 0.00 0.00 0.00 14 1022.4
20260510163416 31 0.0 0.0 0.00 0.00 0.00 14 1022.4
20260510163336 31 0.0 0.0 0.00 0.00 0.00 14 1022.4
20260510163216 31 0.0 0.0 0.00 0.00 0.00 14 1022.4
20260510163138 31 0.0 0.0 0.00 0.00 0.00 13 1022.3
20260510163016 31 0.0 0.0 0.00 0.00 0.00 13 1022.3
20260510162917 31 0.0 0.0 0.00 0.00 0.00 14 1022.4
20260510162817 31 0.0 0.0 0.00 0.00 0.00 14 1022.4
20260510162717 31 0.0 0.0 0.00 0.00 0.00 14 1022.4
20260510162616 30 0.0 0.0 0.00 0.00 0.00 14 1022.4
20260510162516 30 0.0 0.0 0.00 0.00 0.00 14 1022.3
20260510162437 30 0.0 0.0 0.00 0.00 0.00 14 1022.3
20260510162317 31 0.0 0.0 0.00 0.00 0.00 14 1022.4
20260510162216 31 0.0 0.0 0.00 0.00 0.00 14 1022.3
20260510162117 30 0.0 0.0 0.00 0.00 0.00 14 1022.2
20260510162037 30 0.0 0.0 0.00 0.00 0.00 14 1022.3
20260510161916 30 0.0 0.0 0.00 0.00 0.00 14 1022.1
20260510161816 30 0.0 0.0 0.00 0.00 0.00 14 1022.3
20260510161736 30 0.0 0.0 0.00 0.00 0.00 14 1022.2
20260510161616 30 0.0 0.0 0.00 0.00 0.00 14 1022.3
20260510161518 30 0.0 0.0 0.00 0.00 0.00 14 1022.4
20260510161516 30 0.0 0.0 0.00 0.00 0.00 14 1022.3
20260510161316 30 0.0 0.0 0.00 0.00 0.00 14 1022.3
20260510161236 30 0.0 0.0 0.00 0.00 0.00 14 1022.3
20260510161116 30 0.0 0.0 0.00 0.00 0.00 13 1022.4
20260510161016 30 0.0 0.0 0.00 0.00 0.00 14 1022.3
20260510160916 30 0.0 0.0 0.00 0.00 0.00 14 1022.3
20260510160817 30 0.0 0.0 0.00 0.00 0.00 14 1022.1
20260510160717 30 0.0 0.0 0.00 0.00 0.00 14 1022.1
20260510160636 30 0.0 0.0 0.00 0.00 0.00 14 1022.1
20260510160537 30 0.0 0.0 0.00 0.00 0.00 14 1022.1
20260510160457 29 0.0 0.0 0.00 0.00 0.00 14 1022.1
20260510160316 29 0.0 0.0 0.00 0.00 0.00 15 1022.1
20260510160216 29 0.0 0.0 0.00 0.00 0.00 15 1022.1
20260510160116 29 0.0 0.0 0.00 0.00 0.00 14 1022.1
20260510160016 29 0.0 0.0 0.00 0.00 0.00 14 1022.1
20260510155917 30 0.0 0.0 0.00 0.00 0.00 15 1022.1
20260510155816 29 0.0 0.0 0.00 0.00 0.00 14 1022.0
20260510155717 29 0.0 0.0 0.00 0.00 0.00 14 1022.0
20260510155616 29 0.0 0.0 0.00 0.00 0.00 14 1022.1
20260510155517 29 0.0 0.0 0.00 0.00 0.00 15 1022.1
20260510155416 29 0.0 0.0 0.00 0.00 0.00 15 1022.1
20260510155316 28 0.0 0.0 0.00 0.00 0.00 15 1022.1
20260510155216 28 0.0 0.0 0.00 0.00 0.00 15 1021.8
20260510155116 28 0.0 0.0 0.00 0.00 0.00 15 1021.8
20260510155016 28 0.0 0.0 0.00 0.00 0.00 15 1021.8
20260510154956 28 0.0 0.0 0.00 0.00 0.00 15 1021.8
20260510154816 28 0.0 0.0 0.00 0.00 0.00 15 1022.0
20260510154736 28 0.0 0.0 0.00 0.00 0.00 15 1022.0
20260510154616 28 0.0 0.0 0.00 0.00 0.00 15 1022.0
20260510154516 28 0.0 0.0 0.00 0.00 0.00 16 1022.0
20260510154417 28 0.0 0.0 0.00 0.00 0.00 15 1021.9
20260510154316 28 0.0 0.0 0.00 0.00 0.00 15 1022.0
20260510154217 28 0.0 0.0 0.00 0.00 0.00 15 1022.0
20260510154157 28 0.0 0.0 0.00 0.00 0.00 15 1022.0
20260510154036 28 0.0 0.0 0.00 0.00 0.00 15 1022.0
20260510153916 28 0.0 0.0 0.00 0.00 0.00 15 1022.0
20260510153817 28 0.0 0.0 0.00 0.00 0.00 16 1021.9
20260510153716 28 0.0 0.0 0.00 0.00 0.00 16 1022.1
20260510153636 28 0.0 0.0 0.00 0.00 0.00 16 1021.7
20260510153516 28 0.0 0.0 0.00 0.00 0.00 16 1021.7
20260510153417 28 0.0 0.0 0.00 0.00 0.00 16 1021.8
20260510153316 28 0.0 0.0 0.00 0.00 0.00 17 1021.7
20260510153216 27 0.0 0.0 0.00 0.00 0.00 17 1021.7
20260510153117 27 0.0 0.0 0.00 0.00 0.00 17 1021.7
20260510153016 27 0.0 0.0 0.00 0.00 0.00 16 1021.7
20260510152938 27 0.0 0.0 0.00 0.00 0.00 17 1021.8
20260510152859 27 0.0 0.0 0.00 0.00 0.00 17 1021.7
20260510152716 27 0.0 0.0 0.00 0.00 0.00 17 1021.8
20260510152616 27 0.0 0.0 0.00 0.00 0.00 17 1021.9
20260510152516 27 0.0 0.0 0.00 0.00 0.00 17 1021.7
20260510152416 27 0.0 0.0 0.00 0.00 0.00 17 1021.8
20260510152316 27 0.0 0.0 0.00 0.00 0.00 17 1021.8
20260510152215 27 0.0 0.0 0.00 0.00 0.00 18 1021.7
20260510152117 27 0.0 0.0 0.00 0.00 0.00 18 1021.5
20260510152016 27 0.0 0.0 0.00 0.00 0.00 18 1021.5
20260510151917 27 0.0 0.0 0.00 0.00 0.00 18 1021.8
20260510151836 26 0.0 0.0 0.00 0.00 0.00 18 1021.7
20260510151717 26 0.0 0.0 0.00 0.00 0.00 18 1021.7
20260510151616 26 0.0 0.0 0.00 0.00 0.00 18 1021.7
20260510151516 26 0.0 0.0 0.00 0.00 0.00 18 1021.7
20260510151436 26 0.0 0.0 0.00 0.00 0.00 18 1021.8
20260510151316 26 0.0 0.0 0.00 0.00 0.00 19 1021.8
20260510151257 26 0.0 0.0 0.00 0.00 0.00 19 1021.4
20260510151116 26 0.0 0.0 0.00 0.00 0.00 18 1021.5
20260510151016 26 0.0 0.0 0.00 0.00 0.00 18 1021.5
20260510150916 26 0.0 0.0 0.00 0.00 0.00 18 1021.5
20260510150838 26 0.0 0.0 0.00 0.00 0.00 19 1021.4
20260510150717 26 0.0 0.0 0.00 0.00 0.00 19 1021.4
20260510150636 26 0.0 0.0 0.00 0.00 0.00 19 1021.5
20260510150516 26 0.0 0.0 0.00 0.00 0.00 20 1021.5
20260510150417 26 0.0 0.0 0.00 0.00 0.00 20 1021.5
20260510150316 26 0.0 0.0 0.00 0.00 0.00 20 1021.5
20260510150217 26 0.0 0.0 0.00 0.00 0.00 20 1021.6
20260510150116 26 0.0 0.0 0.00 0.00 0.00 19 1021.5
20260510150036 26 0.0 0.0 0.00 0.00 0.00 18 1021.4
20260510145917 26 0.0 0.0 0.00 0.00 0.00 18 1021.5
20260510145816 26 0.0 0.0 0.00 0.00 0.00 20 1021.7
20260510145715 26 0.0 0.0 0.00 0.00 0.00 19 1021.8
20260510145615 26 0.0 0.0 0.00 0.00 0.00 19 1021.5
20260510145517 26 0.0 0.0 0.00 0.00 0.00 20 1021.4
20260510145416 26 0.0 0.0 0.00 0.00 0.00 20 1021.4
20260510145316 26 0.0 0.0 0.00 0.00 0.00 21 1021.5
20260510145216 25 0.0 0.0 0.00 0.00 0.00 21 1021.5
20260510145117 25 0.0 0.0 0.00 0.00 0.00 21 1021.4
20260510145016 25 0.0 0.0 0.00 0.00 0.00 21 1021.4
20260510144916 25 0.0 0.0 0.00 0.00 0.00 21 1021.3
20260510144816 25 0.0 0.0 0.00 0.00 0.00 21 1021.4
20260510144716 25 0.0 0.0 0.00 0.00 0.00 21 1021.3
20260510144617 25 0.0 0.0 0.00 0.00 0.00 23 1021.4
20260510144556 25 0.0 0.0 0.00 0.00 0.00 22 1021.4
20260510144416 25 0.0 0.0 0.00 0.00 0.00 23 1021.3
20260510144316 25 0.0 0.0 0.00 0.00 0.00 22 1021.4
20260510144236 25 0.0 0.0 0.00 0.00 0.00 23 1021.4
20260510144116 25 0.0 0.0 0.00 0.00 0.00 22 1021.4
20260510144016 25 0.0 0.0 0.00 0.00 0.00 22 1021.3
20260510143916 25 0.0 0.0 0.00 0.00 0.00 22 1021.4
20260510143816 25 0.0 0.0 0.00 0.00 0.00 23 1021.2
20260510143736 25 0.0 0.0 0.00 0.00 0.00 23 1021.3
20260510143616 25 0.0 0.0 0.00 0.00 0.00 23 1021.3
20260510143516 24 0.0 0.0 0.00 0.00 0.00 23 1021.3
20260510143416 24 0.0 0.0 0.00 0.00 0.00 23 1021.2
20260510143316 24 0.0 0.0 0.00 0.00 0.00 23 1020.9
20260510143241 24 0.0 0.0 0.00 0.00 0.00 23 1021.0
20260510143239 24 0.0 0.0 0.00 0.00 0.00 23 1021.0
20260510143016 24 0.0 0.0 0.00 0.00 0.00 22 1020.9
20260510142916 24 0.0 0.0 0.00 0.00 0.00 22 1020.9
20260510142817 24 0.0 0.0 0.00 0.00 0.00 22 1020.8
20260510142716 24 0.0 0.0 0.00 0.00 0.00 22 1020.8
20260510142616 24 0.0 0.0 0.00 0.00 0.00 22 1021.1
20260510142516 25 0.0 0.0 0.00 0.00 0.00 21 1021.0
20260510142416 25 0.0 0.0 0.00 0.00 0.00 21 1021.3
20260510142316 25 0.0 0.0 0.00 0.00 0.00 21 1021.3
20260510142215 25 0.0 0.0 0.00 0.00 0.00 21 1021.2
20260510142116 26 0.0 0.0 0.00 0.00 0.00 20 1021.2
20260510142016 26 0.0 0.0 0.00 0.00 0.00 19 1021.4
20260510141917 26 0.0 0.0 0.00 0.00 0.00 17 1021.3
20260510141817 26 0.0 0.0 0.00 0.00 0.00 17 1021.3
20260510141716 26 0.0 0.0 0.00 0.00 0.00 17 1021.2
20260510141615 26 0.0 0.0 0.00 0.00 0.00 17 1021.2
20260510141515 26 0.0 0.0 0.00 0.00 0.00 17 1021.3
20260510141416 26 0.0 0.0 0.00 0.00 0.00 17 1021.2
20260510141321 26 0.0 0.0 0.00 0.00 0.00 17 1021.0
20260510141216 26 0.0 0.0 0.00 0.00 0.00 17 1021.0
20260510141117 26 0.0 0.0 0.00 0.00 0.00 17 1021.2
20260510141015 26 0.0 0.0 0.00 0.00 0.00 17 1021.1
20260510140916 26 0.0 0.0 0.00 0.00 0.00 17 1021.2
20260510140816 25 0.0 0.0 0.00 0.00 0.00 18 1021.1
20260510140736 25 0.0 0.0 0.00 0.00 0.00 17 1021.2
20260510140617 25 0.0 0.0 0.00 0.00 0.00 17 1021.1
20260510140516 25 0.0 0.0 0.00 0.00 0.00 18 1020.9
20260510140416 25 0.0 0.0 0.00 0.00 0.00 18 1020.8
20260510140316 25 0.0 0.0 0.00 0.00 0.00 17 1020.7
20260510140216 25 0.0 0.0 0.00 0.00 0.00 18 1021.0
20260510140116 25 0.0 0.0 0.00 0.00 0.00 18 1021.1
20260510140015 25 0.0 0.0 0.00 0.00 0.00 18 1021.0
20260510135916 25 0.0 0.0 0.00 0.00 0.00 18 1020.8
20260510135816 25 0.0 0.0 0.00 0.00 0.00 19 1020.8
20260510135716 24 0.0 0.0 0.00 0.00 0.00 19 1020.8
20260510135616 24 0.0 0.0 0.00 0.00 0.00 19 1020.8
20260510135515 24 0.0 0.0 0.00 0.00 0.00 19 1020.8
20260510135416 24 0.0 0.0 0.00 0.00 0.00 19 1020.9
20260510135337 24 0.0 0.0 0.00 0.00 0.00 19 1020.8
20260510135236 24 0.0 0.0 0.00 0.00 0.00 19 1020.8
20260510135117 24 0.0 0.0 0.00 0.00 0.00 19 1020.8
20260510135036 24 0.0 0.0 0.00 0.00 0.00 19 1020.8
20260510134916 24 0.0 0.0 0.00 0.00 0.00 19 1020.8
20260510134837 23 0.0 0.0 0.00 0.00 0.00 19 1020.8
20260510134717 23 0.0 0.0 0.00 0.00 0.00 19 1020.7
20260510134617 23 0.0 0.0 0.00 0.00 0.00 19 1020.7
20260510134515 23 0.0 0.0 0.00 0.00 0.00 19 1020.8
20260510134416 23 0.0 0.0 0.00 0.00 0.00 19 1020.8
20260510134316 23 0.0 0.0 0.00 0.00 0.00 19 1020.7
20260510134215 23 0.0 0.0 0.00 0.00 0.00 19 1020.7
20260510134117 23 0.0 0.0 0.00 0.00 0.00 20 1020.7
20260510134017 23 0.0 0.0 0.00 0.00 0.00 20 1020.6
20260510133916 23 0.0 0.0 0.00 0.00 0.00 20 1020.4
20260510133816 22 0.0 0.0 0.00 0.00 0.00 20 1020.5
20260510133717 22 0.0 0.0 0.00 0.00 0.00 20 1020.5
20260510133616 22 0.0 0.0 0.00 0.00 0.00 21 1020.4
20260510133516 22 0.0 0.0 0.00 0.00 0.00 20 1020.4
20260510133502 22 0.0 0.0 0.00 0.00 0.00 21 1020.4
20260510133440 22 0.0 0.0 0.00 0.00 0.00 21 1020.4
20260510133216 22 0.0 0.0 0.00 0.00 0.00 21 1020.1
20260510133116 22 0.0 0.0 0.00 0.00 0.00 21 1020.3
20260510133015 21 0.0 0.0 0.00 0.00 0.00 21 1020.4
20260510132916 21 0.0 0.0 0.00 0.00 0.00 21 1020.0
20260510132816 21 0.0 0.0 0.00 0.00 0.00 21 1020.0
20260510132715 21 0.0 0.0 0.00 0.00 0.00 21 1020.1
20260510132616 21 0.0 0.0 0.00 0.00 0.00 22 1020.0
20260510132516 21 0.0 0.0 0.00 0.00 0.00 22 1020.0
20260510132417 21 0.0 0.0 0.00 0.00 0.00 22 1020.1
20260510132337 20 0.0 0.0 0.00 0.00 0.00 22 1020.1
20260510132217 20 0.0 0.0 0.00 0.00 0.00 22 1020.1
20260510132117 20 0.0 0.0 0.00 0.00 0.00 22 1019.9
20260510132015 20 0.0 0.0 0.00 0.00 0.00 22 1019.8
20260510131916 20 0.0 0.0 0.00 0.00 0.00 22 1019.7
20260510131816 20 0.0 0.0 0.00 0.00 0.00 22 1019.8
20260510131717 20 0.0 0.0 0.00 0.00 0.00 23 1019.8
20260510131617 20 0.0 0.0 0.00 0.00 0.00 23 1019.8
20260510131516 19 0.0 0.0 0.00 0.00 0.00 23 1019.8
20260510131437 19 0.0 0.0 0.00 0.00 0.00 23 1019.6
20260510131316 19 0.0 0.0 0.00 0.00 0.00 23 1019.6
20260510131215 19 0.0 0.0 0.00 0.00 0.00 23 1019.7
20260510131116 18 0.0 0.0 0.00 0.00 0.00 23 1019.7
20260510131016 18 0.0 0.0 0.00 0.00 0.00 24 1019.7
20260510130916 18 0.0 0.0 0.00 0.00 0.00 24 1019.5
20260510130817 18 0.0 0.0 0.00 0.00 0.00 24 1019.4
20260510130716 18 0.0 0.0 0.00 0.00 0.00 23 1019.4
20260510130636 18 0.0 0.0 0.00 0.00 0.00 23 1019.4
20260510130516 18 0.0 0.0 0.00 0.00 0.00 24 1019.4
20260510130416 18 0.0 0.0 0.00 0.00 0.00 24 1019.4
20260510130316 18 0.0 0.0 0.00 0.00 0.00 24 1019.4
20260510130216 18 0.0 0.0 0.00 0.00 0.00 24 1019.4
20260510130116 18 0.0 0.0 0.00 0.00 0.00 23 1019.4
20260510130037 18 0.0 0.0 0.00 0.00 0.00 23 1019.4
20260510125917 18 0.0 0.0 0.00 0.00 0.00 23 1019.6
20260510125816 18 0.0 0.0 0.00 0.00 0.00 23 1019.5
20260510125717 18 0.0 0.0 0.00 0.00 0.00 23 1019.6
20260510125637 18 0.0 0.0 0.00 0.00 0.00 23 1019.6
20260510125537 18 0.0 0.0 0.00 0.00 0.00 23 1019.6
20260510125417 19 0.0 0.0 0.00 0.00 0.00 23 1019.6
20260510125317 19 0.0 0.0 0.00 0.00 0.00 23 1019.5
20260510125216 19 0.0 0.0 0.00 0.00 0.00 22 1019.5
20260510125117 19 0.0 0.0 0.00 0.00 0.00 22 1019.3
20260510125017 19 0.0 0.0 0.00 0.00 0.00 22 1019.4
20260510124916 19 0.0 0.0 0.00 0.00 0.00 22 1019.4
20260510124816 19 0.0 0.0 0.00 0.00 0.00 22 1019.4
20260510124757 19 0.0 0.0 0.00 0.00 0.00 22 1019.4
20260510124636 19 0.0 0.0 0.00 0.00 0.00 22 1019.4
20260510124535 19 0.0 0.0 0.00 0.00 0.00 22 1019.7
20260510124416 19 0.0 0.0 0.00 0.00 0.00 23 1019.7
20260510124316 20 0.0 0.0 0.00 0.00 0.00 22 1019.6
20260510124237 20 0.0 0.0 0.00 0.00 0.00 22 1019.7
20260510124116 20 0.0 0.0 0.00 0.00 0.00 22 1019.7
20260510124037 20 0.0 0.0 0.00 0.00 0.00 21 1019.6
20260510123916 20 0.0 0.0 0.00 0.00 0.00 21 1019.6
20260510123816 20 0.0 0.0 0.00 0.00 0.00 21 1019.6
20260510123737 20 0.0 0.0 0.00 0.00 0.00 21 1019.8
20260510123615 20 0.0 0.0 0.00 0.00 0.00 21 1019.7
20260510123515 21 0.0 0.0 0.00 0.00 0.00 21 1019.6
20260510123417 21 0.0 0.0 0.00 0.00 0.00 20 1019.4
20260510123316 21 0.0 0.0 0.00 0.00 0.00 20 1019.4
20260510123217 21 0.0 0.0 0.00 0.00 0.00 20 1019.4
20260510123136 21 0.0 0.0 0.00 0.00 0.00 20 1019.4
20260510123015 21 0.0 0.0 0.00 0.00 0.00 20 1019.4
20260510122916 21 0.0 0.0 0.00 0.00 0.00 20 1019.4
20260510122816 21 0.0 0.0 0.00 0.00 0.00 20 1019.4
20260510122716 21 0.0 0.0 0.00 0.00 0.00 20 1019.4
20260510122617 21 0.0 0.0 0.00 0.00 0.00 20 1019.3
20260510122516 21 0.0 0.0 0.00 0.00 0.00 20 1019.4
20260510122416 21 0.0 0.0 0.00 0.00 0.00 20 1019.4
20260510122316 21 0.0 0.0 0.00 0.00 0.00 20 1019.3
20260510122215 21 0.0 0.0 0.00 0.00 0.00 20 1019.4
20260510122118 21 0.0 0.0 0.00 0.00 0.00 20 1019.3
20260510122116 21 0.0 0.0 0.00 0.00 0.00 20 1019.3
20260510121916 21 0.0 0.0 0.00 0.00 0.00 20 1019.2
20260510121815 21 0.0 0.0 0.00 0.00 0.00 20 1019.4
20260510121738 21 0.0 0.0 0.00 0.00 0.00 20 1019.3
20260510121616 21 0.0 0.0 0.00 0.00 0.00 19 1019.3
20260510121516 21 0.0 0.0 0.00 0.00 0.00 19 1019.3
20260510121416 21 0.0 0.0 0.00 0.00 0.00 19 1019.3
20260510121317 21 0.0 0.0 0.00 0.00 0.00 19 1019.3
20260510121215 21 0.0 0.0 0.00 0.00 0.00 19 1019.3
20260510121115 21 0.0 0.0 0.00 0.00 0.00 19 1019.4
20260510121016 21 0.0 0.0 0.00 0.00 0.00 20 1019.3
20260510120916 21 0.0 0.0 0.00 0.00 0.00 19 1019.3
20260510120816 21 0.0 0.0 0.00 0.00 0.00 19 1019.2
20260510120716 21 0.0 0.0 0.00 0.00 0.00 20 1019.3
20260510120636 21 0.0 0.0 0.00 0.00 0.00 20 1019.3
20260510120516 20 0.0 0.0 0.00 0.00 0.00 20 1019.4
20260510120416 20 0.0 0.0 0.00 0.00 0.00 20 1019.4
20260510120316 20 0.0 0.0 0.00 0.00 0.00 20 1019.4
20260510120217 20 0.0 0.0 0.00 0.00 0.00 20 1019.3
20260510120116 20 0.0 0.0 0.00 0.00 0.00 20 1019.3
20260510120016 20 0.0 0.0 0.00 0.00 0.00 20 1019.2
20260510115916 20 0.0 0.0 0.00 0.00 0.00 20 1019.3
20260510115815 20 0.0 0.0 0.00 0.00 0.00 20 1019.4
20260510115715 20 0.0 0.0 0.00 0.00 0.00 20 1019.3
20260510115616 20 0.0 0.0 0.00 0.00 0.00 20 1019.4
20260510115517 20 0.0 0.0 0.00 0.00 0.00 20 1019.3
20260510115416 20 0.0 0.0 0.00 0.00 0.00 20 1019.3
20260510115315 20 0.0 0.0 0.00 0.00 0.00 20 1019.3
20260510115216 20 0.0 0.0 0.00 0.00 0.00 20 1019.3
20260510115137 20 0.0 0.0 0.00 0.00 0.00 20 1019.3
20260510115016 20 0.0 0.0 0.00 0.00 0.00 20 1019.2
20260510114916 20 0.0 0.0 0.00 0.00 0.00 20 1019.3
20260510114836 20 0.0 0.0 0.00 0.00 0.00 20 1019.2
20260510114716 20 0.0 0.0 0.00 0.00 0.00 20 1018.9
20260510114615 20 0.0 0.0 0.00 0.00 0.00 20 1019.0
20260510114515 20 0.0 0.0 0.00 0.00 0.00 21 1018.9
20260510114416 19 0.0 0.0 0.00 0.00 0.00 21 1018.9
20260510114317 19 0.0 0.0 0.00 0.00 0.00 21 1019.0
20260510114217 18 0.0 0.0 0.00 0.00 0.00 21 1018.8
20260510114115 18 0.0 0.0 0.00 0.00 0.00 21 1018.9
20260510114015 18 0.0 0.0 0.00 0.00 0.00 21 1018.5
20260510113917 18 0.0 0.0 0.00 0.00 0.00 21 1018.6
20260510113816 18 0.0 0.0 0.00 0.00 0.00 21 1018.6
20260510113717 18 0.0 0.0 0.00 0.00 0.00 21 1018.7
20260510113637 18 0.0 0.0 0.00 0.00 0.00 21 1018.8
20260510113557 18 0.0 0.0 0.00 0.00 0.00 21 1018.8
20260510113416 19 0.0 0.0 0.00 0.00 0.00 21 1018.8
20260510113317 19 0.0 0.0 0.00 0.00 0.00 21 1018.9
20260510113216 19 0.0 0.0 0.00 0.00 0.00 20 1018.8
20260510113115 19 0.0 0.0 0.00 0.00 0.00 20 1018.9
20260510113015 19 0.0 0.0 0.00 0.00 0.00 20 1018.8
20260510112917 19 0.0 0.0 0.00 0.00 0.00 20 1018.7
20260510112836 19 0.0 0.0 0.00 0.00 0.00 20 1018.8
20260510112717 19 0.0 0.0 0.00 0.00 0.00 21 1018.8
20260510112616 19 0.0 0.0 0.00 0.00 0.00 21 1018.7
20260510112536 19 0.0 0.0 0.00 0.00 0.00 21 1018.7
20260510112437 19 0.0 0.0 0.00 0.00 0.00 21 1018.8
20260510112316 19 0.0 0.0 0.00 0.00 0.00 21 1018.9
20260510112217 19 0.0 0.0 0.00 0.00 0.00 21 1019.0
20260510112115 19 0.0 0.0 0.00 0.00 0.00 21 1019.0
20260510112058 19 0.0 0.0 0.00 0.00 0.00 23 1019.0
20260510111916 20 0.0 0.0 0.00 0.00 0.00 22 1019.1
20260510111816 20 0.0 0.0 0.00 0.00 0.00 20 1019.0
20260510111735 20 0.0 0.0 0.00 0.00 0.00 21 1019.0
20260510111615 20 0.0 0.0 0.00 0.00 0.00 23 1019.0
20260510111517 20 0.0 0.0 0.00 0.00 0.00 26 1019.0
20260510111436 20 0.0 0.0 0.00 0.00 0.00 21 1019.0
20260510111335 20 0.0 0.0 0.00 0.00 0.00 20 1018.8
20260510111217 20 0.0 0.0 0.00 0.00 0.00 20 1018.8
20260510111115 20 0.0 0.0 0.00 0.00 0.00 20 1018.8
20260510111015 20 0.0 0.0 0.00 0.00 0.00 20 1018.8
20260510110936 20 0.0 0.0 0.00 0.00 0.00 20 1018.7
20260510110815 20 0.0 0.0 0.00 0.00 0.00 19 1019.1
20260510110717 20 0.0 0.0 0.00 0.00 0.00 19 1019.1
20260510110635 20 0.0 0.0 0.00 0.00 0.00 19 1019.1
20260510110537 20 0.0 0.0 0.00 0.00 0.00 19 1019.1
20260510110417 21 0.0 0.0 0.00 0.00 0.00 19 1019.1
20260510110315 21 0.0 0.0 0.00 0.00 0.00 19 1019.1
20260510110215 21 0.0 0.0 0.00 0.00 0.00 19 1018.9
20260510110115 21 0.0 0.0 0.00 0.00 0.00 18 1019.0
20260510110015 21 0.0 0.0 0.00 0.00 0.00 19 1019.0
20260510105916 21 0.0 0.0 0.00 0.00 0.00 19 1019.1
20260510105856 21 0.0 0.0 0.00 0.00 0.00 18 1019.0
20260510105715 21 0.0 0.0 0.00 0.00 0.00 19 1019.1
20260510105636 21 0.0 0.0 0.00 0.00 0.00 19 1019.0
20260510105515 20 0.0 0.0 0.00 0.00 0.00 19 1019.1
20260510105416 20 0.0 0.0 0.00 0.00 0.00 19 1018.8
20260510105337 20 0.0 0.0 0.00 0.00 0.00 19 1018.8
20260510105215 20 0.0 0.0 0.00 0.00 0.00 20 1018.8
20260510105117 20 0.0 0.0 0.00 0.00 0.00 19 1018.9
20260510105015 20 0.0 0.0 0.00 0.00 0.00 19 1018.7
20260510104937 20 0.0 0.0 0.00 0.00 0.00 19 1018.8
20260510104817 20 0.0 0.0 0.00 0.00 0.00 19 1018.7
20260510104715 20 0.0 0.0 0.00 0.00 0.00 19 1018.8
20260510104637 20 0.0 0.0 0.00 0.00 0.00 19 1018.7
20260510104515 20 0.0 0.0 0.00 0.00 0.00 19 1018.9
20260510104416 20 0.0 0.0 0.00 0.00 0.00 19 1018.9
20260510104315 20 0.0 0.0 0.00 0.00 0.00 19 1019.0
20260510104236 20 0.0 0.0 0.00 0.00 0.00 19 1018.9
20260510104116 20 0.0 0.0 0.00 0.00 0.00 19 1019.0
20260510104017 21 0.0 0.0 0.00 0.00 0.00 19 1018.9
20260510103916 21 0.0 0.0 0.00 0.00 0.00 18 1018.9
20260510103815 21 0.0 0.0 0.00 0.00 0.00 19 1018.9
20260510103715 21 0.0 0.0 0.00 0.00 0.00 18 1018.9
20260510103635 21 0.0 0.0 0.00 0.00 0.00 18 1018.9
20260510103515 21 0.0 0.0 0.00 0.00 0.00 18 1018.9
20260510103416 21 0.0 0.0 0.00 0.00 0.00 18 1018.9
20260510103316 21 0.0 0.0 0.00 0.00 0.00 18 1018.9
20260510103217 21 0.0 0.0 0.00 0.00 0.00 18 1018.9
20260510103136 21 0.0 0.0 0.00 0.00 0.00 18 1019.0
20260510103015 21 0.0 0.0 0.00 0.00 0.00 19 1018.9
20260510102936 21 0.0 0.0 0.00 0.00 0.00 19 1018.9
20260510102836 21 0.0 0.0 0.00 0.00 0.00 19 1019.0
20260510102715 21 0.0 0.0 0.00 0.00 0.00 19 1019.0
20260510102615 21 0.0 0.0 0.00 0.00 0.00 19 1018.9
20260510102516 21 0.0 0.0 0.00 0.00 0.00 19 1019.0
20260510102415 21 0.0 0.0 0.00 0.00 0.00 19 1019.0
20260510102335 21 0.0 0.0 0.00 0.00 0.00 19 1018.9
20260510102215 20 0.0 0.0 0.00 0.00 0.00 19 1019.0
20260510102115 20 0.0 0.0 0.00 0.00 0.00 19 1018.9
20260510102017 20 0.0 0.0 0.00 0.00 0.00 19 1018.9
20260510101936 20 0.0 0.0 0.00 0.00 0.00 19 1018.9
20260510101835 20 0.0 0.0 0.00 0.00 0.00 20 1018.8
20260510101735 20 0.0 0.0 0.00 0.00 0.00 22 1018.7
20260510101615 20 0.0 0.0 0.00 0.00 0.00 25 1018.8
20260510101515 20 0.0 0.0 0.00 0.00 0.00 27 1018.9
20260510101416 20 0.0 0.0 0.00 0.00 0.00 22 1018.8
20260510101315 20 0.0 0.0 0.00 0.00 0.00 20 1018.6
20260510101258 20 0.0 0.0 0.00 0.00 0.00 19 1018.7
20260510101116 20 0.0 0.0 0.00 0.00 0.00 19 1018.6
20260510101016 20 0.0 0.0 0.00 0.00 0.00 20 1018.6
20260510100937 20 0.0 0.0 0.00 0.00 0.00 19 1018.5
20260510100816 20 0.0 0.0 0.00 0.00 0.00 20 1018.7
20260510100715 20 0.0 0.0 0.00 0.00 0.00 19 1018.5
20260510100615 20 0.0 0.0 0.00 0.00 0.00 19 1018.6
20260510100516 20 0.0 0.0 0.00 0.00 0.00 19 1018.5
20260510100416 20 0.0 0.0 0.00 0.00 0.00 19 1018.5
20260510100315 20 0.0 0.0 0.00 0.00 0.00 19 1018.7
20260510100215 20 0.0 0.0 0.00 0.00 0.00 19 1018.8
20260510100115 20 0.0 0.0 0.00 0.00 0.00 19 1018.7
20260510100015 20 0.0 0.0 0.00 0.00 0.00 19 1018.7
20260510095916 20 0.0 0.0 0.00 0.00 0.00 19 1018.7
20260510095815 21 0.0 0.0 0.00 0.00 0.00 19 1018.4
20260510095738 21 0.0 0.0 0.00 0.00 0.00 19 1018.5
20260510095615 21 0.0 0.0 0.00 0.00 0.00 19 1018.5
20260510095516 21 0.0 0.0 0.00 0.00 0.00 18 1018.7
20260510095417 21 0.0 0.0 0.00 0.00 0.00 18 1018.7
20260510095316 21 0.0 0.0 0.00 0.00 0.00 18 1018.7
20260510095215 21 0.0 0.0 0.00 0.00 0.00 18 1018.7
20260510095115 21 0.0 0.0 0.00 0.00 0.00 18 1018.9
20260510095015 22 0.0 0.0 0.00 0.00 0.00 18 1018.8
20260510094915 22 0.0 0.0 0.00 0.00 0.00 17 1018.9
20260510094816 22 0.0 0.0 0.00 0.00 0.00 17 1018.9
20260510094735 22 0.0 0.0 0.00 0.00 0.00 17 1018.9
20260510094615 22 0.0 0.0 0.00 0.00 0.00 17 1018.9
20260510094515 22 0.0 0.0 0.00 0.00 0.00 17 1018.9
20260510094456 22 0.0 0.0 0.00 0.00 0.00 17 1018.9
20260510094317 22 0.0 0.0 0.00 0.00 0.00 17 1018.9
20260510094216 22 0.0 0.0 0.00 0.00 0.00 17 1018.9
20260510094115 22 0.0 0.0 0.00 0.00 0.00 17 1019.3
20260510094015 22 0.0 0.0 0.00 0.00 0.00 17 1018.9
20260510093916 22 0.0 0.0 0.00 0.00 0.00 17 1018.8
20260510093835 22 0.0 0.0 0.00 0.00 0.00 17 1019.3
20260510093715 22 0.0 0.0 0.00 0.00 0.00 17 1018.9
20260510093616 22 0.0 0.0 0.00 0.00 0.00 17 1018.9
20260510093536 22 0.0 0.0 0.00 0.00 0.00 17 1019.0
20260510093416 22 0.0 0.0 0.00 0.00 0.00 17 1019.3
20260510093316 22 0.0 0.0 0.00 0.00 0.00 17 1019.1
20260510093215 22 0.0 0.0 0.00 0.00 0.00 17 1019.1
20260510093135 22 0.0 0.0 0.00 0.00 0.00 17 1018.9
20260510093015 22 0.0 0.0 0.00 0.00 0.00 17 1018.8
20260510092916 22 0.0 0.0 0.00 0.00 0.00 17 1018.8
20260510092815 22 0.0 0.0 0.00 0.00 0.00 17 1019.1
20260510092715 22 0.0 0.0 0.00 0.00 0.00 17 1018.9
20260510092615 22 0.0 0.0 0.00 0.00 0.00 17 1018.9
20260510092515 22 0.0 0.0 0.00 0.00 0.00 17 1018.8
20260510092416 22 0.0 0.0 0.00 0.00 0.00 17 1018.7
20260510092315 22 0.0 0.0 0.00 0.00 0.00 17 1018.9
20260510092215 22 0.0 0.0 0.00 0.00 0.00 17 1018.9
20260510092116 22 0.0 0.0 0.00 0.00 0.00 17 1018.9
20260510092015 22 0.0 0.0 0.00 0.00 0.00 18 1018.9
20260510091936 22 0.0 0.0 0.00 0.00 0.00 18 1018.9
20260510091817 22 0.0 0.0 0.00 0.00 0.00 18 1019.0
20260510091736 22 0.0 0.0 0.00 0.00 0.00 18 1019.0
20260510091615 22 0.0 0.0 0.00 0.00 0.00 18 1019.0
20260510091516 22 0.0 0.0 0.00 0.00 0.00 17 1018.8
20260510091415 22 0.0 0.0 0.00 0.00 0.00 17 1018.8
20260510091315 22 0.0 0.0 0.00 0.00 0.00 17 1018.7
20260510091216 22 0.0 0.0 0.00 0.00 0.00 17 1018.7
20260510091115 22 0.0 0.0 0.00 0.00 0.00 17 1018.6
20260510091016 22 0.0 0.0 0.00 0.00 0.00 17 1018.6
20260510090916 22 0.0 0.0 0.00 0.00 0.00 17 1018.7
20260510090837 22 0.0 0.0 0.00 0.00 0.00 17 1018.5
20260510090715 22 0.0 0.0 0.00 0.00 0.00 18 1018.5
20260510090615 22 0.0 0.0 0.00 0.00 0.00 17 1018.3
20260510090515 22 0.0 0.0 0.00 0.00 0.00 18 1018.5
20260510090415 22 0.0 0.0 0.00 0.00 0.00 18 1018.5
20260510090316 22 0.0 0.0 0.00 0.00 0.00 18 1018.5
20260510090215 22 0.0 0.0 0.00 0.00 0.00 18 1018.5
20260510090115 22 0.0 0.0 0.00 0.00 0.00 18 1018.7
20260510090015 22 0.0 0.0 0.00 0.00 0.00 18 1018.4
20260510085916 22 0.0 0.0 0.00 0.00 0.00 18 1018.8
20260510085817 22 0.0 0.0 0.00 0.00 0.00 18 1018.7
20260510085715 22 0.0 0.0 0.00 0.00 0.00 18 1018.7
20260510085615 22 0.0 0.0 0.00 0.00 0.00 17 1018.7
20260510085515 22 0.0 0.0 0.00 0.00 0.00 17 1018.6
20260510085436 22 0.0 0.0 0.00 0.00 0.00 17 1018.4
20260510085337 22 0.0 0.0 0.00 0.00 0.00 17 1018.6
20260510085216 22 0.0 0.0 0.00 0.00 0.00 17 1018.5
20260510085115 22 0.0 0.0 0.00 0.00 0.00 17 1018.6
20260510085015 22 0.0 0.0 0.00 0.00 0.00 17 1018.5
20260510084935 22 0.0 0.0 0.00 0.00 0.00 17 1018.2
20260510084815 22 0.0 0.0 0.00 0.00 0.00 17 1018.2
20260510084715 22 0.0 0.0 0.00 0.00 0.00 17 1018.3
20260510084615 22 0.0 0.0 0.00 0.00 0.00 17 1018.5
20260510084516 22 0.0 0.0 0.00 0.00 0.00 17 1018.4
20260510084417 22 0.0 0.0 0.00 0.00 0.00 17 1018.5
20260510084315 22 0.0 0.0 0.00 0.00 0.00 17 1018.4
20260510084216 22 0.0 0.0 0.00 0.00 0.00 17 1018.3
20260510084115 22 0.0 0.0 0.00 0.00 0.00 17 1018.4
20260510084015 22 0.0 0.0 0.00 0.00 0.00 17 1018.7
20260510083937 22 0.0 0.0 0.00 0.00 0.00 17 1018.7
20260510083815 22 0.0 0.0 0.00 0.00 0.00 16 1018.6
20260510083715 22 0.0 0.0 0.00 0.00 0.00 16 1018.7
20260510083617 22 0.0 0.0 0.00 0.00 0.00 16 1018.7
20260510083515 22 0.0 0.0 0.00 0.00 0.00 16 1018.6
20260510083415 23 0.0 0.0 0.00 0.00 0.00 16 1018.6
20260510083315 23 0.0 0.0 0.00 0.00 0.00 16 1018.6
20260510083215 23 0.0 0.0 0.00 0.00 0.00 16 1018.7
20260510083115 23 0.0 0.0 0.00 0.00 0.00 16 1018.7
20260510083016 23 0.0 0.0 0.00 0.00 0.00 16 1018.6
20260510082956 23 0.0 0.0 0.00 0.00 0.00 16 1018.7
20260510082816 23 0.0 0.0 0.00 0.00 0.00 16 1018.7
20260510082715 23 0.0 0.0 0.00 0.00 0.00 15 1018.7
20260510082615 23 0.0 0.0 0.00 0.00 0.00 15 1019.0
20260510082517 24 0.0 0.0 0.00 0.00 0.00 15 1019.0
20260510082417 24 0.0 0.0 0.00 0.00 0.00 15 1019.0
20260510082315 24 0.0 0.0 0.00 0.00 0.00 15 1018.8
20260510082215 24 0.0 0.0 0.00 0.00 0.00 15 1018.7
20260510082115 24 0.0 0.0 0.00 0.00 0.00 15 1019.0
20260510082015 24 0.0 0.0 0.00 0.00 0.00 14 1019.1
20260510081915 24 0.0 0.0 0.00 0.00 0.00 14 1019.0
20260510081815 24 0.0 0.0 0.00 0.00 0.00 14 1019.1
20260510081715 24 0.0 0.0 0.00 0.00 0.00 14 1019.0
20260510081615 24 0.0 0.0 0.00 0.00 0.00 14 1019.0
20260510081515 24 0.0 0.0 0.00 0.00 0.00 14 1019.0
20260510081435 25 0.0 0.0 0.00 0.00 0.00 14 1019.1
20260510081315 25 0.0 0.0 0.00 0.00 0.00 14 1019.1
20260510081215 25 0.0 0.0 0.00 0.00 0.00 14 1019.0
20260510081135 25 0.0 0.0 0.00 0.00 0.00 14 1019.1
20260510081016 25 0.0 0.0 0.00 0.00 0.00 14 1019.1
20260510080915 25 0.0 0.0 0.00 0.00 0.00 14 1019.1
20260510080815 25 0.0 0.0 0.00 0.00 0.00 14 1019.0
20260510080715 25 0.0 0.0 0.00 0.00 0.00 14 1019.2
20260510080615 25 0.0 0.0 0.00 0.00 0.00 14 1019.0
20260510080515 25 0.0 0.0 0.00 0.00 0.00 14 1019.1
20260510080416 25 0.0 0.0 0.00 0.00 0.00 14 1018.9
20260510080216 25 0.0 0.0 0.00 0.00 0.00 14 1019.0
20260510080115 25 0.0 0.0 0.00 0.00 0.00 14 1019.0
20260510080015 25 0.0 0.0 0.00 0.00 0.00 14 1019.1
20260510075916 25 0.0 0.0 0.00 0.00 0.00 14 1018.7
20260510075815 25 0.0 0.0 0.00 0.00 0.00 14 1018.7
20260510075715 25 0.0 0.0 0.00 0.00 0.00 14 1018.7
20260510075616 25 0.0 0.0 0.00 0.00 0.00 14 1019.0
20260510075515 25 0.0 0.0 0.00 0.00 0.00 14 1018.7
20260510075416 25 0.0 0.0 0.00 0.00 0.00 14 1019.0
20260510075315 25 0.0 0.0 0.00 0.00 0.00 14 1019.0
20260510075215 25 0.0 0.0 0.00 0.00 0.00 14 1018.9
20260510075115 25 0.0 0.0 0.00 0.00 0.00 14 1018.9
20260510075015 24 0.0 0.0 0.00 0.00 0.00 14 1018.9
20260510074915 24 0.0 0.0 0.00 0.00 0.00 14 1018.7
20260510074815 24 0.0 0.0 0.00 0.00 0.00 14 1018.7
20260510074715 24 0.0 0.0 0.00 0.00 0.00 15 1018.7
20260510074616 24 0.0 0.0 0.00 0.00 0.00 14 1018.6
20260510074515 24 0.0 0.0 0.00 0.00 0.00 14 1018.6
20260510074415 24 0.0 0.0 0.00 0.00 0.00 15 1018.7
20260510074315 24 0.0 0.0 0.00 0.00 0.00 15 1018.8
20260510074238 24 0.0 0.0 0.00 0.00 0.00 15 1018.7
20260510074115 24 0.0 0.0 0.00 0.00 0.00 15 1018.4
20260510074015 24 0.0 0.0 0.00 0.00 0.00 14 1018.5
20260510073937 24 0.0 0.0 0.00 0.00 0.00 15 1018.5
20260510073815 24 0.0 0.0 0.00 0.00 0.00 15 1018.5
20260510073715 23 0.0 0.0 0.00 0.00 0.00 15 1018.5
20260510073615 23 0.0 0.0 0.00 0.00 0.00 15 1018.5
20260510073515 23 0.0 0.0 0.00 0.00 0.00 15 1018.6
20260510073415 23 0.0 0.0 0.00 0.00 0.00 15 1018.6
20260510073315 23 0.0 0.0 0.00 0.00 0.00 15 1018.6
20260510073215 23 0.0 0.0 0.00 0.00 0.00 15 1018.6
20260510073116 23 0.0 0.0 0.00 0.00 0.00 15 1018.6
20260510073016 23 0.0 0.0 0.00 0.00 0.00 15 1018.6
20260510072916 23 0.0 0.0 0.00 0.00 0.00 15 1018.6
20260510072815 23 0.0 0.0 0.00 0.00 0.00 15 1018.6
20260510072715 23 0.0 0.0 0.00 0.00 0.00 15 1018.7
20260510072615 23 0.0 0.0 0.00 0.00 0.00 15 1018.7
20260510072515 23 0.0 0.0 0.00 0.00 0.00 15 1018.7
20260510072417 23 0.0 0.0 0.00 0.00 0.00 15 1018.7
20260510072316 23 0.0 0.0 0.00 0.00 0.00 15 1018.5
20260510072215 23 0.0 0.0 0.00 0.00 0.00 15 1018.5
20260510072115 23 0.0 0.0 0.00 0.00 0.00 15 1018.5
20260510072015 23 0.0 0.0 0.00 0.00 0.00 16 1018.6
20260510071916 22 0.0 0.0 0.00 0.00 0.00 16 1018.6
20260510071815 22 0.0 0.0 0.00 0.00 0.00 16 1018.6
20260510071715 22 0.0 0.0 0.00 0.00 0.00 16 1018.6
20260510071615 22 0.0 0.0 0.00 0.00 0.00 16 1018.8
20260510071515 22 0.0 0.0 0.00 0.00 0.00 16 1018.5
20260510071436 22 0.0 0.0 0.00 0.00 0.00 16 1018.6
20260510071315 23 0.0 0.0 0.00 0.00 0.00 16 1018.6
20260510071215 23 0.0 0.0 0.00 0.00 0.00 15 1018.5
20260510071115 23 0.0 0.0 0.00 0.00 0.00 15 1018.5
20260510071015 23 0.0 0.0 0.00 0.00 0.00 15 1018.5
20260510070935 23 0.0 0.0 0.00 0.00 0.00 15 1018.5
20260510070815 23 0.0 0.0 0.00 0.00 0.00 15 1018.5
20260510070715 23 0.0 0.0 0.00 0.00 0.00 15 1018.5
20260510070615 23 0.0 0.0 0.00 0.00 0.00 15 1018.6
20260510070515 23 0.0 0.0 0.00 0.00 0.00 15 1018.6
20260510070415 23 0.0 0.0 0.00 0.00 0.00 15 1018.5
20260510070316 23 0.0 0.0 0.00 0.00 0.00 15 1018.5
20260510070215 23 0.0 0.0 0.00 0.00 0.00 15 1018.5
20260510070115 23 0.0 0.0 0.00 0.00 0.00 15 1018.5
20260510070017 23 0.0 0.0 0.00 0.00 0.00 15 1018.5
20260510065918 23 0.0 0.0 0.00 0.00 0.00 15 1018.5
20260510065817 23 0.0 0.0 0.00 0.00 0.00 15 1018.2
20260510065716 23 0.0 0.0 0.00 0.00 0.00 15 1018.2
20260510065618 23 0.0 0.0 0.00 0.00 0.00 15 1018.5
20260510065517 23 0.0 0.0 0.00 0.00 0.00 15 1018.5
20260510065417 23 0.0 0.0 0.00 0.00 0.00 15 1018.5
20260510065317 22 0.0 0.0 0.00 0.00 0.00 15 1018.4
20260510065217 22 0.0 0.0 0.00 0.00 0.00 15 1018.2
20260510065118 22 0.0 0.0 0.00 0.00 0.00 15 1018.2
20260510065017 22 0.0 0.0 0.00 0.00 0.00 15 1018.2
20260510064938 22 0.0 0.0 0.00 0.00 0.00 15 1018.2
20260510064817 22 0.0 0.0 0.00 0.00 0.00 15 1018.2
20260510064738 22 0.0 0.0 0.00 0.00 0.00 15 1018.1
20260510064616 22 0.0 0.0 0.00 0.00 0.00 15 1018.2
20260510064517 22 0.0 0.0 0.00 0.00 0.00 15 1018.2
20260510064418 22 0.0 0.0 0.00 0.00 0.00 15 1018.2
20260510064337 22 0.0 0.0 0.00 0.00 0.00 15 1018.2
20260510064217 23 0.0 0.0 0.00 0.00 0.00 15 1018.2
20260510064118 23 0.0 0.0 0.00 0.00 0.00 15 1018.2
20260510064017 23 0.0 0.0 0.00 0.00 0.00 15 1018.2
20260510063917 23 0.0 0.0 0.00 0.00 0.00 15 1018.2
20260510063817 23 0.0 0.0 0.00 0.00 0.00 15 1018.2
20260510063717 23 0.0 0.0 0.00 0.00 0.00 15 1018.5
20260510063616 23 0.0 0.0 0.00 0.00 0.00 15 1018.5
20260510063517 23 0.0 0.0 0.00 0.00 0.00 14 1018.5
20260510063417 23 0.0 0.0 0.00 0.00 0.00 14 1018.5
20260510063317 23 0.0 0.0 0.00 0.00 0.00 14 1018.2
20260510063217 23 0.0 0.0 0.00 0.00 0.00 14 1018.2
20260510063158 23 0.0 0.0 0.00 0.00 0.00 14 1018.5
20260510063018 23 0.0 0.0 0.00 0.00 0.00 14 1018.4
20260510062917 23 0.0 0.0 0.00 0.00 0.00 14 1018.5
20260510062817 24 0.0 0.0 0.00 0.00 0.00 14 1018.4
20260510062718 24 0.0 0.0 0.00 0.00 0.00 14 1018.5
20260510062616 24 0.0 0.0 0.00 0.00 0.00 14 1018.5
20260510062519 24 0.0 0.0 0.00 0.00 0.00 13 1018.7
20260510062317 24 0.0 0.0 0.00 0.00 0.00 13 1018.4
20260510062217 25 0.0 0.0 0.00 0.00 0.00 13 1018.4
20260510062117 25 0.0 0.0 0.00 0.00 0.00 13 1018.4
20260510062017 25 0.0 0.0 0.00 0.00 0.00 13 1018.4
20260510061917 25 0.0 0.0 0.00 0.00 0.00 13 1018.4
20260510061817 25 0.0 0.0 0.00 0.00 0.00 13 1018.4
20260510061718 25 0.0 0.0 0.00 0.00 0.00 13 1018.4
20260510061616 25 0.0 0.0 0.00 0.00 0.00 13 1018.2
20260510061517 25 0.0 0.0 0.00 0.00 0.00 13 1018.2
20260510061458 25 0.0 0.0 0.00 0.00 0.00 13 1018.1
20260510061318 25 0.0 0.0 0.00 0.00 0.00 13 1018.4
20260510061217 25 0.0 0.0 0.00 0.00 0.00 13 1018.4
20260510061137 25 0.0 0.0 0.00 0.00 0.00 13 1018.3
20260510061017 25 0.0 0.0 0.00 0.00 0.00 13 1018.1
20260510060917 25 0.0 0.0 0.00 0.00 0.00 13 1018.4
20260510060838 25 0.0 0.0 0.00 0.00 0.00 13 1018.1
20260510060718 25 0.0 0.0 0.00 0.00 0.00 13 1018.0
20260510060616 25 0.0 0.0 0.00 0.00 0.00 13 1018.1
20260510060517 25 0.0 0.0 0.00 0.00 0.00 13 1018.4
20260510060417 25 0.0 0.0 0.00 0.00 0.00 13 1018.4
20260510060318 25 0.0 0.0 0.00 0.00 0.00 13 1018.4
20260510060217 25 0.0 0.0 0.00 0.00 0.00 13 1018.4
20260510060118 25 0.0 0.0 0.00 0.00 0.00 13 1018.2
20260510060018 25 0.0 0.0 0.00 0.00 0.00 13 1018.2
20260510055917 25 0.0 0.0 0.00 0.00 0.00 13 1018.2
20260510055818 25 0.0 0.0 0.00 0.00 0.00 13 1018.0
20260510055718 25 0.0 0.0 0.00 0.00 0.00 13 1018.0
20260510055618 25 0.0 0.0 0.00 0.00 0.00 13 1018.0
20260510055537 25 0.0 0.0 0.00 0.00 0.00 13 1017.9
20260510055417 24 0.0 0.0 0.00 0.00 0.00 13 1017.9
20260510055318 24 0.0 0.0 0.00 0.00 0.00 13 1018.0
20260510055218 24 0.0 0.0 0.00 0.00 0.00 14 1018.0
20260510055117 24 0.0 0.0 0.00 0.00 0.00 14 1018.0
20260510055017 24 0.0 0.0 0.00 0.00 0.00 14 1017.9
20260510054917 23 0.0 0.0 0.00 0.00 0.00 14 1017.7
20260510054817 23 0.0 0.0 0.00 0.00 0.00 14 1017.8
20260510054717 24 0.0 0.0 0.00 0.00 0.00 13 1017.7
20260510054638 24 0.0 0.0 0.00 0.00 0.00 13 1018.0
20260510054516 24 0.0 0.0 0.00 0.00 0.00 13 1018.0
20260510054416 24 0.0 0.0 0.00 0.00 0.00 13 1018.0
20260510054317 24 0.0 0.0 0.00 0.00 0.00 13 1018.1
20260510054217 24 0.0 0.0 0.00 0.00 0.00 13 1018.0
20260510054137 25 0.0 0.0 0.00 0.00 0.00 13 1018.0
20260510054017 25 0.0 0.0 0.00 0.00 0.00 13 1018.0
20260510053917 25 0.0 0.0 0.00 0.00 0.00 13 1018.0
20260510053817 25 0.0 0.0 0.00 0.00 0.00 13 1017.8
20260510053717 25 0.0 0.0 0.00 0.00 0.00 13 1017.7
20260510053618 25 0.0 0.0 0.00 0.00 0.00 13 1017.7
20260510053516 25 0.0 0.0 0.00 0.00 0.00 13 1017.7
20260510053417 25 0.0 0.0 0.00 0.00 0.00 13 1017.7
20260510053316 25 0.0 0.0 0.00 0.00 0.00 12 1017.6
20260510053217 25 0.0 0.0 0.00 0.00 0.00 12 1017.9
20260510053117 25 0.0 0.0 0.00 0.00 0.00 12 1017.8
20260510053018 25 0.0 0.0 0.00 0.00 0.00 12 1017.9
20260510052918 25 0.0 0.0 0.00 0.00 0.00 12 1017.8
20260510052817 25 0.0 0.0 0.00 0.00 0.00 12 1017.9
20260510052716 25 0.0 0.0 0.00 0.00 0.00 12 1017.9
20260510052616 25 0.0 0.0 0.00 0.00 0.00 12 1017.9
20260510052516 25 0.0 0.0 0.00 0.00 0.00 12 1017.8
20260510052416 25 0.0 0.0 0.00 0.00 0.00 12 1017.9
20260510052317 25 0.0 0.0 0.00 0.00 0.00 12 1017.6
20260510052237 25 0.0 0.0 0.00 0.00 0.00 12 1017.6
20260510052116 25 0.0 0.0 0.00 0.00 0.00 12 1017.7
20260510052017 25 0.0 0.0 0.00 0.00 0.00 12 1017.6
20260510051916 25 0.0 0.0 0.00 0.00 0.00 12 1017.6
20260510051818 25 0.0 0.0 0.00 0.00 0.00 12 1017.6
20260510051717 25 0.0 0.0 0.00 0.00 0.00 12 1017.6
20260510051618 25 0.0 0.0 0.00 0.00 0.00 12 1017.7
20260510051517 25 0.0 0.0 0.00 0.00 0.00 12 1017.9
20260510051417 25 0.0 0.0 0.00 0.00 0.00 12 1017.9
20260510051337 25 0.0 0.0 0.00 0.00 0.00 12 1018.0
20260510051217 26 0.0 0.0 0.00 0.00 0.00 12 1017.9
20260510051138 26 0.0 0.0 0.00 0.00 0.00 12 1017.9
20260510051016 26 0.0 0.0 0.00 0.00 0.00 12 1017.9
20260510050917 26 0.0 0.0 0.00 0.00 0.00 12 1017.9
20260510050816 26 0.0 0.0 0.00 0.00 0.00 12 1017.9
20260510050717 26 0.0 0.0 0.00 0.00 0.00 12 1017.9
20260510050617 26 0.0 0.0 0.00 0.00 0.00 12 1017.7
20260510050517 26 0.0 0.0 0.00 0.00 0.00 12 1017.7
20260510050417 26 0.0 0.0 0.00 0.00 0.00 11 1017.7
20260510050317 26 0.0 0.0 0.00 0.00 0.00 11 1017.6
20260510050218 26 0.0 0.0 0.00 0.00 0.00 11 1017.6
20260510050117 26 0.0 0.0 0.00 0.00 0.00 11 1017.7
20260510050037 26 0.0 0.0 0.00 0.00 0.00 11 1017.7
20260510045937 26 0.0 0.0 0.00 0.00 0.00 11 1017.7
20260510045818 26 0.0 0.0 0.00 0.00 0.00 11 1017.6
20260510045716 26 0.0 0.0 0.00 0.00 0.00 11 1017.6
20260510045616 26 0.0 0.0 0.00 0.00 0.00 11 1017.7
20260510045516 26 0.0 0.0 0.00 0.00 0.00 11 1017.7
20260510045416 26 0.0 0.0 0.00 0.00 0.00 11 1017.7
20260510045316 26 0.0 0.0 0.00 0.00 0.00 11 1017.6
20260510045217 26 0.0 0.0 0.00 0.00 0.00 11 1017.6
20260510045117 26 0.0 0.0 0.00 0.00 0.00 11 1017.7
20260510045017 26 0.0 0.0 0.00 0.00 0.00 11 1017.6
20260510044917 26 0.0 0.0 0.00 0.00 0.00 11 1017.7
20260510044818 26 0.0 0.0 0.00 0.00 0.00 11 1017.6
20260510044718 26 0.0 0.0 0.00 0.00 0.00 11 1017.7
20260510044618 26 0.0 0.0 0.00 0.00 0.00 11 1017.6
20260510044517 26 0.0 0.0 0.00 0.00 0.00 11 1017.9
20260510044417 26 0.0 0.0 0.00 0.00 0.00 11 1017.9
20260510044337 26 0.0 0.0 0.00 0.00 0.00 11 1017.9
20260510044238 26 0.0 0.0 0.00 0.00 0.00 11 1017.6
20260510044116 26 0.0 0.0 0.00 0.00 0.00 11 1017.7
20260510044017 27 0.0 0.0 0.00 0.00 0.00 11 1017.6
20260510043937 27 0.0 0.0 0.00 0.00 0.00 11 1017.7
20260510043816 27 0.0 0.0 0.00 0.00 0.00 11 1017.7
20260510043716 27 0.0 0.0 0.00 0.00 0.00 10 1017.7
20260510043637 27 0.0 0.0 0.00 0.00 0.00 10 1017.6
20260510043516 27 0.0 0.0 0.00 0.00 0.00 10 1017.6
20260510043418 27 0.0 0.0 0.00 0.00 0.00 10 1017.8
20260510043317 27 0.0 0.0 0.00 0.00 0.00 10 1017.8
20260510043216 27 0.0 0.0 0.00 0.00 0.00 10 1017.7
20260510043116 27 0.0 0.0 0.00 0.00 0.00 10 1017.6
20260510043017 27 0.0 0.0 0.00 0.00 0.00 10 1017.6
20260510042917 27 0.0 0.0 0.00 0.00 0.00 10 1017.7
20260510042816 27 0.0 0.0 0.00 0.00 0.00 10 1017.6
20260510042717 27 0.0 0.0 0.00 0.00 0.00 10 1017.6
20260510042617 27 0.0 0.0 0.00 0.00 0.00 10 1017.8
20260510042417 27 0.0 0.0 0.00 0.00 0.00 10 1017.8
20260510042318 27 0.0 0.0 0.00 0.00 0.00 10 1017.8
20260510042217 27 0.0 0.0 0.00 0.00 0.00 10 1017.6
20260510042117 27 0.0 0.0 0.00 0.00 0.00 10 1017.5
20260510042038 27 0.0 0.0 0.00 0.00 0.00 10 1017.6
20260510041918 27 0.0 0.0 0.00 0.00 0.00 10 1017.6
20260510041818 27 0.0 0.0 0.00 0.00 0.00 10 1017.5
20260510041716 27 0.0 0.0 0.00 0.00 0.00 10 1017.7
20260510041617 27 0.0 0.0 0.00 0.00 0.00 10 1017.8
20260510041516 27 0.0 0.0 0.00 0.00 0.00 10 1017.8
20260510041437 27 0.0 0.0 0.00 0.00 0.00 10 1017.8
20260510041316 27 0.0 0.0 0.00 0.00 0.00 10 1017.7
20260510041216 27 0.0 0.0 0.00 0.00 0.00 10 1017.8
20260510041159 27 0.0 0.0 0.00 0.00 0.00 10 1017.8
20260510041016 27 0.0 0.0 0.00 0.00 0.00 10 1017.8
20260510040917 27 0.0 0.0 0.00 0.00 0.00 10 1017.8
20260510040817 27 0.0 0.0 0.00 0.00 0.00 10 1017.8
20260510040716 27 0.0 0.0 0.00 0.00 0.00 10 1017.8
20260510040617 27 0.0 0.0 0.00 0.00 0.00 10 1017.6
20260510040517 27 0.0 0.0 0.00 0.00 0.00 10 1017.6
20260510040418 27 0.0 0.0 0.00 0.00 0.00 10 1017.6
20260510040317 27 0.0 0.0 0.00 0.00 0.00 10 1017.5
20260510040216 27 0.0 0.0 0.00 0.00 0.00 10 1017.6
20260510040116 27 0.0 0.0 0.00 0.00 0.00 10 1017.5
20260510040017 27 0.0 0.0 0.00 0.00 0.00 10 1017.5
20260510035918 27 0.0 0.0 0.00 0.00 0.00 10 1017.5
20260510035857 27 0.0 0.0 0.00 0.00 0.00 10 1017.5
20260510035737 28 0.0 0.0 0.00 0.00 0.00 10 1017.5
20260510035617 28 0.0 0.0 0.00 0.00 0.00 10 1017.5
20260510035517 28 0.0 0.0 0.00 0.00 0.00 10 1017.5
20260510035418 28 0.0 0.0 0.00 0.00 0.00 10 1017.5
20260510035337 28 0.0 0.0 0.00 0.00 0.00 10 1017.5
20260510035216 28 0.0 0.0 0.00 0.00 0.00 10 1017.4
20260510035117 28 0.0 0.0 0.00 0.00 0.00 10 1017.4
20260510035017 28 0.0 0.0 0.00 0.00 0.00 10 1017.4
20260510034916 28 0.0 0.0 0.00 0.00 0.00 10 1017.4
20260510034818 28 0.0 0.0 0.00 0.00 0.00 10 1017.5
20260510034717 28 0.0 0.0 0.00 0.00 0.00 10 1017.4
20260510034637 28 0.0 0.0 0.00 0.00 0.00 10 1017.5
20260510034517 28 0.0 0.0 0.00 0.00 0.00 10 1017.4
20260510034416 28 0.0 0.0 0.00 0.00 0.00 10 1017.4
20260510034319 28 0.0 0.0 0.00 0.00 0.00 10 1017.4
20260510034317 28 0.0 0.0 0.00 0.00 0.00 10 1017.4
20260510034117 28 0.0 0.0 0.00 0.00 0.00 10 1017.3
20260510034016 28 0.0 0.0 0.00 0.00 0.00 10 1017.4
20260510033917 28 0.0 0.0 0.00 0.00 0.00 10 1017.4
20260510033818 28 0.0 0.0 0.00 0.00 0.00 10 1017.4
20260510033736 28 0.0 0.0 0.00 0.00 0.00 10 1017.2
20260510033616 28 0.0 0.0 0.00 0.00 0.00 10 1017.1
20260510033516 28 0.0 0.0 0.00 0.00 0.00 10 1017.1
20260510033416 28 0.0 0.0 0.00 0.00 0.00 10 1017.1
20260510033316 28 0.0 0.0 0.00 0.00 0.00 10 1017.1
20260510033217 28 0.0 0.0 0.00 0.00 0.00 10 1017.1
20260510033138 28 0.0 0.0 0.00 0.00 0.00 10 1017.1
20260510033016 28 0.0 0.0 0.00 0.00 0.00 10 1017.2
20260510032938 28 0.0 0.0 0.00 0.00 0.00 10 1017.1
20260510032818 28 0.0 0.0 0.00 0.00 0.00 10 1017.1
20260510032716 28 0.0 0.0 0.00 0.00 0.00 10 1017.0
20260510032617 28 0.0 0.0 0.00 0.00 0.00 10 1017.0
20260510032536 28 0.0 0.0 0.00 0.00 0.00 10 1017.0
20260510032417 28 0.0 0.0 0.00 0.00 0.00 10 1017.0
20260510032317 28 0.0 0.0 0.00 0.00 0.00 10 1017.1
20260510032216 28 0.0 0.0 0.00 0.00 0.00 10 1017.1
20260510032136 28 0.0 0.0 0.00 0.00 0.00 10 1017.0
20260510032017 28 0.0 0.0 0.00 0.00 0.00 10 1016.7
20260510031916 28 0.0 0.0 0.00 0.00 0.00 10 1016.7
20260510031817 28 0.0 0.0 0.00 0.00 0.00 10 1016.9
20260510031717 28 0.0 0.0 0.00 0.00 0.00 10 1017.0
20260510031617 28 0.0 0.0 0.00 0.00 0.00 10 1017.0
20260510031517 28 0.0 0.0 0.00 0.00 0.00 10 1017.0
20260510031417 28 0.0 0.0 0.00 0.00 0.00 10 1017.0
20260510031317 28 0.0 0.0 0.00 0.00 0.00 10 1017.0
20260510031217 28 0.0 0.0 0.00 0.00 0.00 10 1017.0
20260510031117 29 0.0 0.0 0.00 0.00 0.00 10 1017.0
20260510031016 29 0.0 0.0 0.00 0.00 0.00 10 1017.0
20260510030917 29 0.0 0.0 0.00 0.00 0.00 9 1016.8
20260510030817 29 0.0 0.0 0.00 0.00 0.00 10 1016.9
20260510030716 29 0.0 0.0 0.00 0.00 0.00 10 1017.0
20260510030618 29 0.0 0.0 0.00 0.00 0.00 10 1017.0
20260510030516 29 0.0 0.0 0.00 0.00 0.00 10 1016.7
20260510030417 29 0.0 0.0 0.00 0.00 0.00 9 1016.7
20260510030317 29 0.0 0.0 0.00 0.00 0.00 10 1016.6
20260510030216 29 0.0 0.0 0.00 0.00 0.00 10 1016.6
20260510030116 29 0.0 0.0 0.00 0.00 0.00 10 1016.6
20260510030016 29 0.0 0.0 0.00 0.00 0.00 10 1016.6
20260510025917 29 0.0 0.0 0.00 0.00 0.00 9 1016.6
20260510025838 29 0.0 0.0 0.00 0.00 0.00 9 1016.5
20260510025717 29 0.0 0.0 0.00 0.00 0.00 10 1016.8
20260510025638 29 0.0 0.0 0.00 0.00 0.00 10 1016.8
20260510025517 29 0.0 0.0 0.00 0.00 0.00 10 1016.8
20260510025416 29 0.0 0.0 0.00 0.00 0.00 10 1016.5
20260510025316 29 0.0 0.0 0.00 0.00 0.00 10 1016.5
20260510025216 29 0.0 0.0 0.00 0.00 0.00 9 1016.4
20260510025118 29 0.0 0.0 0.00 0.00 0.00 9 1016.5
20260510025037 29 0.0 0.0 0.00 0.00 0.00 9 1016.4
20260510024916 30 0.0 0.0 0.00 0.00 0.00 9 1016.4
20260510024817 30 0.0 0.0 0.00 0.00 0.00 9 1016.3
20260510024716 30 0.0 0.0 0.00 0.00 0.00 9 1016.3
20260510024616 30 0.0 0.0 0.00 0.00 0.00 9 1016.3
20260510024516 30 0.0 0.0 0.00 0.00 0.00 9 1016.1
20260510024417 30 0.0 0.0 0.00 0.00 0.00 9 1016.1
20260510024316 30 0.0 0.0 0.00 0.00 0.00 9 1016.0
20260510024216 30 0.0 0.0 0.00 0.00 0.00 9 1016.3
20260510024117 30 0.0 0.0 0.00 0.00 0.00 9 1016.3
20260510024017 30 0.0 0.0 0.00 0.00 0.00 9 1016.2
20260510023937 30 0.0 0.0 0.00 0.00 0.00 9 1016.2
20260510023816 30 0.0 0.0 0.00 0.00 0.00 9 1016.2
20260510023717 30 0.0 0.0 0.00 0.00 0.00 9 1016.0
20260510023617 30 0.0 0.0 0.00 0.00 0.00 9 1016.1
20260510023516 30 0.0 0.0 0.00 0.00 0.00 9 1016.1
20260510023417 30 0.0 0.0 0.00 0.00 0.00 9 1016.0
20260510023316 30 0.0 0.0 0.00 0.00 0.00 9 1016.0
20260510023237 30 0.0 0.0 0.00 0.00 0.00 9 1016.0
20260510023116 30 0.0 0.0 0.00 0.00 0.00 9 1016.1
20260510023017 30 0.0 0.0 0.00 0.00 0.00 9 1015.8
20260510022917 30 0.0 0.0 0.00 0.00 0.00 9 1015.7
20260510022817 30 0.0 0.0 0.00 0.00 0.00 9 1015.8
20260510022718 30 0.0 0.0 0.00 0.00 0.00 9 1015.7
20260510022616 30 0.0 0.0 0.00 0.00 0.00 9 1015.7
20260510022537 30 0.0 0.0 0.00 0.00 0.00 9 1015.9
20260510022416 30 0.0 0.0 0.00 0.00 0.00 9 1015.7
20260510022316 30 0.0 0.0 0.00 0.00 0.00 9 1015.7
20260510022217 30 0.0 0.0 0.00 0.00 0.00 9 1015.6
20260510022116 30 0.0 0.0 0.00 0.00 0.00 9 1015.6
20260510022016 30 0.0 0.0 0.00 0.00 0.00 9 1015.6
20260510021957 31 0.0 0.0 0.00 0.00 0.00 9 1015.6
20260510021838 31 0.0 0.0 0.00 0.00 0.00 9 1015.5
20260510021717 31 0.0 0.0 0.00 0.00 0.00 9 1015.6
20260510021616 31 0.0 0.0 0.00 0.00 0.00 9 1015.6
20260510021516 31 0.0 0.0 0.00 0.00 0.00 9 1015.5
20260510021416 31 0.0 0.0 0.00 0.00 0.00 9 1015.6
20260510021317 31 0.0 0.0 0.00 0.00 0.00 8 1015.5
20260510021218 31 0.0 0.0 0.00 0.00 0.00 8 1015.5
20260510021117 31 0.0 0.0 0.00 0.00 0.00 8 1015.5
20260510021016 31 0.0 0.0 0.00 0.00 0.00 8 1015.5
20260510020916 31 0.0 0.0 0.00 0.00 0.00 8 1015.5
20260510020816 31 0.0 0.0 0.00 0.00 0.00 8 1015.5
20260510020716 31 0.0 0.0 0.00 0.00 0.00 8 1015.4
20260510020637 31 0.0 0.0 0.00 0.00 0.00 8 1015.4
20260510020516 31 0.0 0.0 0.00 0.00 0.00 8 1015.5
20260510020417 31 0.0 0.0 0.00 0.00 0.00 8 1015.5
20260510020336 31 0.0 0.0 0.00 0.00 0.00 8 1015.5
20260510020237 31 0.0 0.0 0.00 0.00 0.00 8 1015.5
20260510020137 31 0.0 0.0 0.00 0.00 0.00 8 1015.7
20260510020016 31 0.0 0.0 0.00 0.00 0.00 8 1015.7
20260510015916 31 0.0 0.0 0.00 0.00 0.00 8 1015.6
20260510015817 31 0.0 0.0 0.00 0.00 0.00 8 1015.6
20260510015716 32 0.0 0.0 0.00 0.00 0.00 8 1015.7
20260510015617 32 0.0 0.0 0.00 0.00 0.00 8 1015.5
20260510015518 32 0.0 0.0 0.00 0.00 0.00 8 1015.6
20260510015416 32 0.0 0.0 0.00 0.00 0.00 8 1015.5
20260510015316 32 0.0 0.0 0.00 0.00 0.00 8 1015.5
20260510015216 32 0.0 0.0 0.00 0.00 0.00 8 1015.6
20260510015136 32 0.0 0.0 0.00 0.00 0.00 8 1015.6
20260510015016 32 0.0 0.0 0.00 0.00 0.00 8 1015.6
20260510014937 32 0.0 0.0 0.00 0.00 0.00 8 1015.5
20260510014818 32 0.0 0.0 0.00 0.00 0.00 8 1015.5
20260510014718 32 0.0 0.0 0.00 0.00 0.00 8 1015.5
20260510014618 32 0.0 0.0 0.00 0.00 0.00 8 1015.4
20260510014517 32 0.0 0.0 0.00 0.00 0.00 8 1015.5
20260510014418 32 0.0 0.0 0.00 0.00 0.00 8 1015.2
20260510014316 32 0.0 0.0 0.00 0.00 0.00 8 1015.2
20260510014218 32 0.0 0.0 0.00 0.00 0.00 8 1015.2
20260510014116 32 0.0 0.0 0.00 0.00 0.00 8 1015.1
20260510014016 32 0.0 0.0 0.00 0.00 0.00 8 1015.1
20260510013957 32 0.0 0.0 0.00 0.00 0.00 8 1015.1
20260510013816 32 0.0 0.0 0.00 0.00 0.00 8 1015.1
20260510013717 32 0.0 0.0 0.00 0.00 0.00 8 1015.0
20260510013617 32 0.0 0.0 0.00 0.00 0.00 8 1015.1
20260510013516 32 0.0 0.0 0.00 0.00 0.00 8 1015.1
20260510013438 32 0.0 0.0 0.00 0.00 0.00 8 1015.0
20260510013217 32 0.0 0.0 0.00 0.00 0.00 8 1015.0
20260510013116 32 0.0 0.0 0.00 0.00 0.00 8 1015.0
20260510013016 32 0.0 0.0 0.00 0.00 0.00 9 1015.1
20260510012938 32 0.0 0.0 0.00 0.00 0.00 8 1015.1
20260510012816 32 0.0 0.0 0.00 0.00 0.00 8 1015.0
20260510012716 32 0.0 0.0 0.00 0.00 0.00 8 1015.0
20260510012638 32 0.0 0.0 0.00 0.00 0.00 8 1015.1
20260510012517 32 0.0 0.0 0.00 0.00 0.00 9 1015.1
20260510012458 32 0.0 0.0 0.00 0.00 0.00 8 1015.1
20260510012317 33 0.0 0.0 0.00 0.00 0.00 8 1014.9
20260510012218 33 0.0 0.0 0.00 0.00 0.00 9 1015.1
20260510012116 33 0.0 0.0 0.00 0.00 0.00 8 1015.0
20260510012018 33 0.0 0.0 0.00 0.00 0.00 8 1015.0
20260510011916 33 0.0 0.0 0.00 0.00 0.00 8 1015.0
20260510011816 33 0.0 0.0 0.00 0.00 0.00 8 1015.0
20260510011716 33 0.0 0.0 0.00 0.00 0.00 8 1015.0
20260510011618 33 0.0 0.0 0.00 0.00 0.00 8 1015.1
20260510011517 33 0.0 0.0 0.00 0.00 0.00 8 1015.1
20260510011416 33 0.0 0.0 0.00 0.00 0.00 8 1015.0
20260510011316 33 0.0 0.0 0.00 0.00 0.00 8 1015.0
20260510011217 33 0.0 0.0 0.00 0.00 0.00 8 1015.0
20260510011116 33 0.0 0.0 0.00 0.00 0.00 8 1015.0
20260510011016 33 0.0 0.0 0.00 0.00 0.00 8 1014.9
20260510010916 33 0.0 0.0 0.00 0.00 0.00 8 1015.0
20260510010818 33 0.0 0.0 0.00 0.00 0.00 8 1015.0
20260510010718 33 0.0 0.0 0.00 0.00 0.00 8 1015.0
20260510010616 33 0.0 0.0 0.00 0.00 0.00 8 1015.0
20260510010516 33 0.0 0.0 0.00 0.00 0.00 8 1015.0
20260510010417 33 0.0 0.0 0.00 0.00 0.00 8 1014.9
20260510010317 33 0.0 0.0 0.00 0.00 0.00 8 1015.0
20260510010216 33 0.0 0.0 0.00 0.00 0.00 8 1015.1
20260510010116 33 0.0 0.0 0.00 0.00 0.00 8 1015.1
20260510010036 33 0.0 0.0 0.00 0.00 0.00 8 1015.0
20260510005918 33 0.0 0.0 0.00 0.00 0.00 8 1015.0
20260510005816 33 0.0 0.0 0.00 0.00 0.00 8 1015.0
20260510005738 33 0.0 0.0 0.00 0.00 0.00 8 1015.0
20260510005636 33 0.0 0.0 0.00 0.00 0.00 8 1015.1
20260510005517 33 0.0 0.0 0.00 0.00 0.00 8 1014.8
20260510005416 33 0.0 0.0 0.00 0.00 0.00 8 1014.8
20260510005316 33 0.0 0.0 0.00 0.00 0.00 8 1014.8
20260510005216 33 0.0 0.0 0.00 0.00 0.00 8 1014.8
20260510005116 33 0.0 0.0 0.00 0.00 0.00 8 1014.9
20260510005017 33 0.0 0.0 0.00 0.00 0.00 8 1015.0
20260510004917 33 0.0 0.0 0.00 0.00 0.00 8 1015.1
20260510004839 33 0.0 0.0 0.00 0.00 0.00 8 1015.1
20260510004717 33 0.0 0.0 0.00 0.00 0.00 8 1015.1
20260510004616 33 0.0 0.0 0.00 0.00 0.00 8 1015.1
20260510004536 33 0.0 0.0 0.00 0.00 0.00 8 1015.1
20260510004416 34 0.0 0.0 0.00 0.00 0.00 8 1015.2
20260510004316 34 0.0 0.0 0.00 0.00 0.00 8 1015.1
20260510004216 34 0.0 0.0 0.00 0.00 0.00 8 1015.2
20260510004116 34 0.0 0.0 0.00 0.00 0.00 8 1015.2
20260510004017 34 0.0 0.0 0.00 0.00 0.00 8 1015.2
20260510003916 34 0.0 0.0 0.00 0.00 0.00 8 1015.1
20260510003817 34 0.0 0.0 0.00 0.00 0.00 8 1015.2
20260510003717 33 0.0 0.0 0.00 0.00 0.00 8 1015.1
20260510003618 33 0.0 0.0 0.00 0.00 0.00 8 1015.2
20260510003516 34 0.0 0.0 0.00 0.00 0.00 8 1015.2
20260510003416 34 0.0 0.0 0.00 0.00 0.00 8 1015.2
20260510003337 34 0.0 0.0 0.00 0.00 0.00 7 1015.2
20260510003216 34 0.0 0.0 0.00 0.00 0.00 8 1015.3
20260510003116 34 0.0 0.0 0.00 0.00 0.00 8 1015.3
20260510003018 34 0.0 0.0 0.00 0.00 0.00 8 1015.1
20260510002957 34 0.0 0.0 0.00 0.00 0.00 8 1015.5
20260510002817 34 0.0 0.0 0.00 0.00 0.00 7 1015.4
20260510002716 34 0.0 0.0 0.00 0.00 0.00 7 1015.4
20260510002616 34 0.0 0.0 0.00 0.00 0.00 8 1015.4
20260510002516 34 0.0 0.0 0.00 0.00 0.00 8 1015.4
20260510002416 34 0.0 0.0 0.00 0.00 0.00 7 1015.4
20260510002316 34 0.0 0.0 0.00 0.00 0.00 7 1015.5
20260510002216 34 0.0 0.0 0.00 0.00 0.00 7 1015.4
20260510002116 34 0.0 0.0 0.00 0.00 0.00 7 1015.4
20260510002016 34 0.0 0.0 0.00 0.00 0.00 7 1015.5
20260510001916 34 0.0 0.0 0.00 0.00 0.00 7 1015.4
20260510001817 34 0.0 0.0 0.00 0.00 0.00 7 1015.5
20260510001716 34 0.0 0.0 0.00 0.00 0.00 7 1015.4
20260510001617 34 0.0 0.0 0.00 0.00 0.00 7 1015.5
20260510001516 34 0.0 0.0 0.00 0.00 0.00 7 1015.4
20260510001418 34 0.0 0.0 0.00 0.00 0.00 7 1015.4
20260510001317 34 0.0 0.0 0.00 0.00 0.00 7 1015.4
20260510001218 34 0.0 0.0 0.00 0.00 0.00 7 1015.4
20260510001116 34 0.0 0.0 0.00 0.00 0.00 7 1015.4
20260510001016 34 0.0 0.0 0.00 0.00 0.00 7 1015.4
20260510000916 34 0.0 0.0 0.00 0.00 0.00 7 1015.0
20260510000816 34 0.0 0.0 0.00 0.00 0.00 7 1015.4
20260510000716 34 0.0 0.0 0.00 0.00 0.00 7 1015.3
20260510000637 34 0.0 0.0 0.00 0.00 0.00 7 1015.4
20260510000516 34 0.0 0.0 0.00 0.00 0.00 7 1015.5
20260510000436 35 0.0 0.0 0.00 0.00 0.00 7 1015.4
20260510000319 35 0.0 0.0 0.00 0.00 0.00 7 1015.4
20260510000218 34 0.0 0.0 0.00 0.00 0.00 7 1015.4
20260510000116 34 0.0 0.0 0.00 0.00 0.00 7 1015.4
20260510000016 34 0.0 0.0 0.00 0.00 0.00 7 1015.5
20260509235917 34 0.0 0.0 0.00 0.00 0.00 7 1015.5
20260509235817 35 0.0 0.0 0.00 0.00 0.00 7 1015.4
20260509235738 35 0.0 0.0 0.00 0.00 0.00 7 1015.5
20260509235617 35 0.0 0.0 0.00 0.00 0.00 7 1015.5
20260509235516 35 0.0 0.0 0.00 0.00 0.00 7 1015.5
20260509235416 34 0.0 0.0 0.00 0.00 0.00 7 1015.6
20260509235316 35 0.0 0.0 0.00 0.00 0.00 7 1015.6
20260509235238 35 0.0 0.0 0.00 0.00 0.00 7 1015.5
20260509235136 35 0.0 0.0 0.00 0.00 0.00 7 1015.6
20260509235036 35 0.0 0.0 0.00 0.00 0.00 7 1015.7
20260509234916 35 0.0 0.0 0.00 0.00 0.00 7 1015.5
20260509234837 35 0.0 0.0 0.00 0.00 0.00 7 1015.6
20260509234716 35 0.0 0.0 0.00 0.00 0.00 7 1015.5
20260509234616 35 0.0 0.0 0.00 0.00 0.00 7 1015.5
20260509234538 34 0.0 0.0 0.00 0.00 0.00 7 1015.5
20260509234416 34 0.0 0.0 0.00 0.00 0.00 7 1015.6
20260509234317 34 0.0 0.0 0.00 0.00 0.00 7 1015.5
20260509234237 34 0.0 0.0 0.00 0.00 0.00 7 1015.6
20260509234138 35 0.0 0.0 0.00 0.00 0.00 7 1015.5
20260509234016 35 0.0 0.0 0.00 0.00 0.00 7 1015.6
20260509233918 35 0.0 0.0 0.00 0.00 0.00 7 1015.5
20260509233816 35 0.0 0.0 0.00 0.00 0.00 7 1015.6
20260509233718 35 0.0 0.0 0.00 0.00 0.00 7 1015.5
20260509233616 35 0.0 0.0 0.00 0.00 0.00 7 1015.7
20260509233516 35 0.0 0.0 0.00 0.00 0.00 7 1015.7
20260509233437 35 0.0 0.0 0.00 0.00 0.00 7 1015.6
20260509233316 35 0.0 0.0 0.00 0.00 0.00 7 1015.6
20260509233216 35 0.0 0.0 0.00 0.00 0.00 7 1015.7
20260509233137 35 0.0 0.0 0.00 0.00 0.00 6 1015.6
20260509233016 35 0.0 0.0 0.00 0.00 0.00 7 1015.6
20260509232916 35 0.0 0.0 0.00 0.00 0.00 7 1015.6
20260509232816 35 0.0 0.0 0.00 0.00 0.00 6 1015.6
20260509232716 35 0.0 0.0 0.00 0.00 0.00 7 1015.6
20260509232616 35 0.0 0.0 0.00 0.00 0.00 7 1015.6
20260509232517 35 0.0 0.0 0.00 0.00 0.00 7 1015.6
20260509232316 35 0.0 0.0 0.00 0.00 0.00 7 1015.7
20260509232216 35 0.0 0.0 0.00 0.00 0.00 7 1015.9
20260509232116 35 0.0 0.0 0.00 0.00 0.00 6 1015.9
20260509232017 35 0.0 0.0 0.00 0.00 0.00 6 1016.0
20260509231916 35 0.0 0.0 0.00 0.00 0.00 6 1015.9
20260509231816 35 0.0 0.0 0.00 0.00 0.00 6 1016.0
20260509231716 35 0.0 0.0 0.00 0.00 0.00 6 1016.0
20260509231637 35 0.0 0.0 0.00 0.00 0.00 6 1016.1
20260509231516 35 0.0 0.0 0.00 0.00 0.00 6 1016.1
20260509231417 35 0.0 0.0 0.00 0.00 0.00 6 1016.1
20260509231316 35 0.0 0.0 0.00 0.00 0.00 6 1016.1
20260509231216 35 0.0 0.0 0.00 0.00 0.00 6 1016.0